Time,TemperatureF,DewpointF,PressureIn,WindDirection,WindDirectionDegrees,WindSpeedMPH,WindSpeedGustMPH,Humidity,HourlyPrecipIn,Conditions,Clouds,dailyrainin,SoftwareType,DateUTC
2013-08-13 00:00:00,45.7,45.4,29.97,NNE,24,0.0,0.0,99,0.00,,CLR,0.00,VWS V12.07,2013-08-13 05:00:00,
2013-08-13 00:01:00,45.7,45.4,29.97,NNE,24,0.0,0.0,99,0.00,,CLR,0.00,VWS V12.07,2013-08-13 05:01:00,
2013-08-13 00:03:00,45.7,45.4,29.97,NNE,24,0.0,0.0,99,0.00,,CLR,0.00,VWS V12.07,2013-08-13 05:03:00,
2013-08-13 00:05:00,45.7,45.4,29.97,NNE,24,0.0,0.0,99,0.00,,CLR,0.00,VWS V12.07,2013-08-13 05:05:00,
2013-08-13 00:06:00,45.5,45.2,29.97,NNE,24,0.0,0.0,99,0.00,,CLR,0.00,VWS V12.07,2013-08-13 05:06:00,
2013-08-13 00:08:00,45.5,45.2,29.97,NNE,24,0.0,0.0,99,0.00,,CLR,0.00,VWS V12.07,2013-08-13 05:08:00,
2013-08-13 00:09:00,45.5,45.2,29.97,NNE,24,0.0,0.0,99,0.00,,CLR,0.00,VWS V12.07,2013-08-13 05:09:00,
2013-08-13 00:10:00,45.4,45.1,29.97,NNE,24,0.0,0.0,99,0.00,,CLR,0.00,VWS V12.07,2013-08-13 05:10:00,
2013-08-13 00:11:00,45.4,45.1,29.97,NNE,24,0.0,0.0,99,0.00,,CLR,0.00,VWS V12.07,2013-08-13 05:11:00,
2013-08-13 00:13:00,45.4,45.1,29.97,NNE,24,0.0,0.0,99,0.00,,CLR,0.00,VWS V12.07,2013-08-13 05:13:00,
2013-08-13 00:14:00,45.2,44.9,29.97,NNE,24,0.0,0.0,99,0.00,,CLR,0.00,VWS V12.07,2013-08-13 05:14:00,
2013-08-13 00:16:00,45.2,44.9,29.97,NNE,24,0.0,0.0,99,0.00,,CLR,0.00,VWS V12.07,2013-08-13 05:16:00,
2013-08-13 00:18:00,45.2,44.9,29.97,NNE,24,0.0,0.0,99,0.00,,CLR,0.00,VWS V12.07,2013-08-13 05:18:00,
2013-08-13 00:19:00,45.1,44.8,29.97,NNE,24,0.0,0.0,99,0.00,,CLR,0.00,VWS V12.07,2013-08-13 05:19:00,
2013-08-13 00:21:00,45.1,44.8,29.97,NNE,24,0.0,0.0,99,0.00,,CLR,0.00,VWS V12.07,2013-08-13 05:21:00,
2013-08-13 00:22:00,45.1,44.8,29.97,NNE,24,0.0,0.0,99,0.00,,CLR,0.00,VWS V12.07,2013-08-13 05:22:00,
2013-08-13 00:23:00,44.9,44.9,29.97,NNE,24,0.0,0.0,100,0.00,,CLR,0.00,VWS V12.07,2013-08-13 05:23:00,
2013-08-13 00:24:00,44.9,44.9,29.97,NNE,24,0.0,0.0,100,0.00,,CLR,0.00,VWS V12.07,2013-08-13 05:24:00,
2013-08-13 00:25:00,44.9,44.9,29.97,NNE,24,0.0,0.0,100,0.00,,CLR,0.00,VWS V12.07,2013-08-13 05:25:00,
2013-08-13 00:26:00,44.9,44.9,29.97,NNE,24,0.0,0.0,100,0.00,,CLR,0.00,VWS V12.07,2013-08-13 05:26:00,
2013-08-13 00:27:00,44.9,44.9,29.97,NNE,24,0.0,0.0,100,0.00,,CLR,0.00,VWS V12.07,2013-08-13 05:27:00,
2013-08-13 00:29:00,44.8,44.8,29.97,NNE,24,0.0,0.0,100,0.00,,CLR,0.00,VWS V12.07,2013-08-13 05:29:00,
2013-08-13 00:30:00,44.8,44.8,29.97,NNE,24,0.0,0.0,100,0.00,,CLR,0.00,VWS V12.07,2013-08-13 05:30:00,
2013-08-13 00:31:00,44.8,44.8,29.97,NNE,24,0.0,0.0,100,0.00,,CLR,0.00,VWS V12.07,2013-08-13 05:31:00,
2013-08-13 00:32:00,44.8,44.8,29.97,NNE,24,0.0,0.0,100,0.00,,CLR,0.00,VWS V12.07,2013-08-13 05:32:00,
2013-08-13 00:34:00,44.8,44.8,29.97,NNE,24,0.0,0.0,100,0.00,,,0.00,VWS V12.07,2013-08-13 05:34:00,
2013-08-13 00:35:00,44.6,44.6,29.97,NNE,24,0.0,0.0,100,0.00,,,0.00,VWS V12.07,2013-08-13 05:35:00,
2013-08-13 00:36:00,44.6,44.6,29.97,NNE,24,0.0,0.0,100,0.00,,,0.00,VWS V12.07,2013-08-13 05:36:00,
2013-08-13 00:38:00,44.6,44.6,29.97,NNE,24,0.0,0.0,100,0.00,,,0.00,VWS V12.07,2013-08-13 05:38:00,
2013-08-13 00:39:00,44.6,44.6,29.97,NNE,24,0.0,0.0,100,0.00,,,0.00,VWS V12.07,2013-08-13 05:39:00,
2013-08-13 00:40:00,44.6,44.6,29.97,NNE,24,0.0,0.0,100,0.00,,,0.00,VWS V12.07,2013-08-13 05:40:00,
2013-08-13 00:42:00,44.6,44.6,29.97,NNE,24,0.0,0.0,100,0.00,,,0.00,VWS V12.07,2013-08-13 05:42:00,
2013-08-13 00:43:00,44.6,44.6,29.97,NNE,24,0.0,0.0,100,0.00,,,0.00,VWS V12.07,2013-08-13 05:43:00,
2013-08-13 00:44:00,44.6,44.6,29.97,NNE,24,0.0,0.0,100,0.00,,,0.00,VWS V12.07,2013-08-13 05:44:00,
2013-08-13 00:45:00,44.6,44.6,29.97,NNE,24,0.0,0.0,100,0.00,,,0.00,VWS V12.07,2013-08-13 05:45:00,
2013-08-13 00:47:00,44.6,44.6,29.97,NNE,24,0.0,0.0,100,0.00,,,0.00,VWS V12.07,2013-08-13 05:47:00,
2013-08-13 00:49:00,44.6,44.6,29.97,NNE,24,0.0,0.0,100,0.00,,,0.00,VWS V12.07,2013-08-13 05:49:00,
2013-08-13 00:50:00,44.6,44.6,29.97,NNE,24,0.0,0.0,100,0.00,,,0.00,VWS V12.07,2013-08-13 05:50:00,
2013-08-13 00:51:00,44.6,44.6,29.97,NNE,24,0.0,0.0,100,0.00,,,0.00,VWS V12.07,2013-08-13 05:51:00,
2013-08-13 00:52:00,44.6,44.6,29.97,NNE,24,0.0,0.0,100,0.00,,,0.00,VWS V12.07,2013-08-13 05:52:00,
2013-08-13 00:54:00,44.5,44.5,29.97,NNE,24,0.0,0.0,100,0.00,,,0.00,VWS V12.07,2013-08-13 05:54:00,
2013-08-13 00:55:00,44.5,44.5,29.97,NNE,24,0.0,0.0,100,0.00,,,0.00,VWS V12.07,2013-08-13 05:55:00,
2013-08-13 00:56:00,44.5,44.5,29.97,NNE,24,0.0,0.0,100,0.00,,,0.00,VWS V12.07,2013-08-13 05:56:00,
2013-08-13 00:57:00,44.5,44.5,29.98,NNE,24,0.0,0.0,100,0.00,,,0.00,VWS V12.07,2013-08-13 05:57:00,
2013-08-13 01:00:00,44.5,44.5,29.98,NNE,24,0.0,0.0,100,0.00,,,0.00,VWS V12.07,2013-08-13 06:00:00,
2013-08-13 01:01:00,44.5,44.5,29.98,NNE,24,0.0,0.0,100,0.00,,,0.00,VWS V12.07,2013-08-13 06:01:00,
2013-08-13 01:02:00,44.5,44.5,29.98,NNE,24,0.0,0.0,100,0.00,,,0.00,VWS V12.07,2013-08-13 06:02:00,
2013-08-13 01:05:00,44.5,44.5,29.98,NNE,24,0.0,0.0,100,0.00,,,0.00,VWS V12.07,2013-08-13 06:05:00,
2013-08-13 01:06:00,44.5,44.5,29.98,NNE,24,0.0,0.0,100,0.00,,,0.00,VWS V12.07,2013-08-13 06:06:00,
2013-08-13 01:07:00,44.5,44.5,29.98,NNE,24,0.0,0.0,100,0.00,,,0.00,VWS V12.07,2013-08-13 06:07:00,
2013-08-13 01:11:00,44.6,44.6,29.98,NNE,24,0.0,0.0,100,0.00,,,0.00,VWS V12.07,2013-08-13 06:11:00,
2013-08-13 01:13:00,44.6,44.6,29.98,NNE,24,0.0,0.0,100,0.00,,,0.00,VWS V12.07,2013-08-13 06:13:00,
2013-08-13 01:16:00,44.5,44.5,29.98,NNE,24,0.0,0.0,100,0.00,,,0.00,VWS V12.07,2013-08-13 06:16:00,
2013-08-13 01:18:00,44.5,44.5,29.98,NNE,24,0.0,0.0,100,0.00,,,0.00,VWS V12.07,2013-08-13 06:18:00,
2013-08-13 01:19:00,44.5,44.5,29.98,NNE,24,0.0,0.0,100,0.00,,,0.00,VWS V12.07,2013-08-13 06:19:00,
2013-08-13 01:21:00,44.5,44.5,29.98,NNE,24,0.0,0.0,100,0.00,,,0.00,VWS V12.07,2013-08-13 06:21:00,
2013-08-13 01:23:00,44.5,44.5,29.98,NNE,24,0.0,0.0,100,0.00,,,0.00,VWS V12.07,2013-08-13 06:23:00,
2013-08-13 01:24:00,44.5,44.5,29.98,NNE,24,0.0,0.0,100,0.00,,,0.00,VWS V12.07,2013-08-13 06:24:00,
2013-08-13 01:26:00,44.5,44.5,29.98,NNE,24,0.0,0.0,100,0.00,,,0.00,VWS V12.07,2013-08-13 06:26:00,
2013-08-13 01:29:00,44.5,44.5,29.98,NNE,24,0.0,0.0,100,0.00,,,0.00,VWS V12.07,2013-08-13 06:29:00,
2013-08-13 01:30:00,44.5,44.5,29.98,NNE,24,0.0,0.0,100,0.00,,,0.00,VWS V12.07,2013-08-13 06:30:00,
2013-08-13 01:32:00,44.5,44.5,29.98,NNE,24,0.0,0.0,100,0.00,,,0.00,VWS V12.07,2013-08-13 06:32:00,
2013-08-13 01:34:00,44.5,44.5,29.98,NNE,24,0.0,0.0,100,0.00,,,0.00,VWS V12.07,2013-08-13 06:34:00,
2013-08-13 01:35:00,44.5,44.5,29.98,NNE,24,0.0,0.0,100,0.00,,,0.00,VWS V12.07,2013-08-13 06:35:00,
2013-08-13 01:37:00,44.5,44.5,29.98,NNE,24,0.0,0.0,100,0.00,,,0.00,VWS V12.07,2013-08-13 06:37:00,
2013-08-13 01:39:00,44.5,44.5,29.98,NNE,24,0.0,0.0,100,0.00,,,0.00,VWS V12.07,2013-08-13 06:39:00,
2013-08-13 01:40:00,44.5,44.5,29.98,NNE,24,0.0,0.0,100,0.00,,,0.00,VWS V12.07,2013-08-13 06:40:00,
2013-08-13 01:42:00,44.5,44.5,29.98,NNE,24,0.0,0.0,100,0.00,,,0.00,VWS V12.07,2013-08-13 06:42:00,
2013-08-13 01:44:00,44.5,44.5,29.98,NNE,24,0.0,0.0,100,0.00,,,0.00,VWS V12.07,2013-08-13 06:44:00,
2013-08-13 01:46:00,44.3,44.3,29.98,NNE,24,0.0,0.0,100,0.00,,,0.00,VWS V12.07,2013-08-13 06:46:00,
2013-08-13 01:48:00,44.3,44.3,29.98,NNE,24,0.0,0.0,100,0.00,,,0.00,VWS V12.07,2013-08-13 06:48:00,
2013-08-13 01:50:00,44.3,44.3,29.98,NNE,24,0.0,0.0,100,0.00,,,0.00,VWS V12.07,2013-08-13 06:50:00,
2013-08-13 01:51:00,44.5,44.5,29.98,NNE,24,0.0,0.0,100,0.00,,,0.00,VWS V12.07,2013-08-13 06:51:00,
2013-08-13 01:54:00,44.5,44.5,29.98,NNE,24,0.0,0.0,100,0.00,,,0.00,VWS V12.07,2013-08-13 06:54:00,
2013-08-13 01:55:00,44.3,44.3,29.98,NNE,24,0.0,0.0,100,0.00,,,0.00,VWS V12.07,2013-08-13 06:55:00,
2013-08-13 01:56:00,44.3,44.3,29.98,NNE,24,0.0,0.0,100,0.00,,,0.00,VWS V12.07,2013-08-13 06:56:00,
2013-08-13 01:57:00,44.3,44.3,29.98,NNE,24,0.0,0.0,100,0.00,,,0.00,VWS V12.07,2013-08-13 06:57:00,
2013-08-13 01:59:00,44.2,44.2,29.98,NNE,24,0.0,0.0,100,0.00,,,0.00,VWS V12.07,2013-08-13 06:59:00,
2013-08-13 02:01:00,44.2,44.2,29.98,NNE,24,0.0,0.0,100,0.00,,,0.00,VWS V12.07,2013-08-13 07:01:00,
2013-08-13 02:02:00,44.2,44.2,29.98,NNE,24,0.0,0.0,100,0.00,,,0.00,VWS V12.07,2013-08-13 07:02:00,
2013-08-13 02:03:00,44.2,44.2,29.98,NNE,24,0.0,0.0,100,0.00,,,0.00,VWS V12.07,2013-08-13 07:03:00,
2013-08-13 02:04:00,44.1,44.1,29.98,NNE,24,0.0,0.0,100,0.00,,,0.00,VWS V12.07,2013-08-13 07:04:00,
2013-08-13 02:06:00,44.1,44.1,29.98,NNE,24,0.0,0.0,100,0.00,,,0.00,VWS V12.07,2013-08-13 07:06:00,
2013-08-13 02:07:00,44.1,44.1,29.98,NNE,24,0.0,0.0,100,0.00,,,0.00,VWS V12.07,2013-08-13 07:07:00,
2013-08-13 02:08:00,44.1,44.1,29.98,NNE,24,0.0,0.0,100,0.00,,,0.00,VWS V12.07,2013-08-13 07:08:00,
2013-08-13 02:10:00,43.9,43.9,29.98,NNE,24,0.0,0.0,100,0.00,,,0.00,VWS V12.07,2013-08-13 07:10:00,
2013-08-13 02:12:00,43.9,43.9,29.98,NNE,24,0.0,0.0,100,0.00,,,0.00,VWS V12.07,2013-08-13 07:12:00,
2013-08-13 02:13:00,43.9,43.9,29.98,NNE,24,0.0,0.0,100,0.00,,,0.00,VWS V12.07,2013-08-13 07:13:00,
2013-08-13 02:15:00,43.9,43.9,29.98,NNE,24,0.0,0.0,100,0.00,,,0.00,VWS V12.07,2013-08-13 07:15:00,
2013-08-13 02:18:00,43.9,43.9,29.98,NNE,24,0.0,0.0,100,0.00,,,0.00,VWS V12.07,2013-08-13 07:18:00,
2013-08-13 02:19:00,43.9,43.9,29.98,NNE,24,0.0,0.0,100,0.00,,,0.00,VWS V12.07,2013-08-13 07:19:00,
2013-08-13 02:21:00,43.9,43.9,29.98,NNE,24,0.0,0.0,100,0.00,,,0.00,VWS V12.07,2013-08-13 07:21:00,
2013-08-13 02:23:00,43.8,43.8,29.98,NNE,24,0.0,0.0,100,0.00,,,0.00,VWS V12.07,2013-08-13 07:23:00,
2013-08-13 02:24:00,43.8,43.8,29.98,NNE,24,0.0,0.0,100,0.00,,,0.00,VWS V12.07,2013-08-13 07:24:00,
2013-08-13 02:26:00,43.8,43.8,29.98,NNE,24,0.0,0.0,100,0.00,,,0.00,VWS V12.07,2013-08-13 07:26:00,
2013-08-13 02:28:00,43.8,43.8,29.98,NNE,24,0.0,0.0,100,0.00,,,0.00,VWS V12.07,2013-08-13 07:28:00,
2013-08-13 02:29:00,43.8,43.8,29.98,NNE,24,0.0,0.0,100,0.00,,,0.00,VWS V12.07,2013-08-13 07:29:00,
2013-08-13 02:30:00,43.6,43.6,29.98,NNE,24,0.0,0.0,100,0.00,,,0.00,VWS V12.07,2013-08-13 07:30:00,
2013-08-13 02:31:00,43.6,43.6,29.98,NNE,24,0.0,0.0,100,0.00,,,0.00,VWS V12.07,2013-08-13 07:31:00,
2013-08-13 02:34:00,43.6,43.6,29.98,NNE,24,0.0,0.0,100,0.00,,SCT002,0.00,VWS V12.07,2013-08-13 07:34:00,
2013-08-13 02:35:00,43.6,43.6,29.98,NNE,24,0.0,0.0,100,0.00,,SCT002,0.00,VWS V12.07,2013-08-13 07:35:00,
2013-08-13 02:37:00,43.6,43.6,29.98,NNE,24,0.0,0.0,100,0.00,,SCT002,0.00,VWS V12.07,2013-08-13 07:37:00,
2013-08-13 02:39:00,43.5,43.5,29.98,NNE,24,0.0,0.0,100,0.00,,SCT002,0.00,VWS V12.07,2013-08-13 07:39:00,
2013-08-13 02:40:00,43.5,43.5,29.98,NNE,24,0.0,0.0,100,0.00,,SCT002,0.00,VWS V12.07,2013-08-13 07:40:00,
2013-08-13 02:42:00,43.5,43.5,29.98,NNE,24,0.0,0.0,100,0.00,,SCT002,0.00,VWS V12.07,2013-08-13 07:42:00,
2013-08-13 02:44:00,43.5,43.5,29.99,NNE,24,0.0,0.0,100,0.00,,SCT002,0.00,VWS V12.07,2013-08-13 07:44:00,
2013-08-13 02:45:00,43.5,43.5,29.99,NNE,24,0.0,0.0,100,0.00,,SCT002,0.00,VWS V12.07,2013-08-13 07:45:00,
2013-08-13 02:47:00,43.5,43.5,29.99,NNE,24,0.0,0.0,100,0.00,,SCT002,0.00,VWS V12.07,2013-08-13 07:47:00,
2013-08-13 02:50:00,43.3,43.3,29.99,NNE,24,0.0,0.0,100,0.00,,CLR,0.00,VWS V12.07,2013-08-13 07:50:00,
2013-08-13 02:51:00,43.3,43.3,29.99,NNE,24,0.0,0.0,100,0.00,,CLR,0.00,VWS V12.07,2013-08-13 07:51:00,
2013-08-13 02:52:00,43.3,43.3,29.99,NNE,24,0.0,0.0,100,0.00,,CLR,0.00,VWS V12.07,2013-08-13 07:52:00,
2013-08-13 02:55:00,43.3,43.3,29.99,NNE,24,0.0,0.0,100,0.00,,CLR,0.00,VWS V12.07,2013-08-13 07:55:00,
2013-08-13 02:56:00,43.3,43.3,29.99,NNE,24,0.0,0.0,100,0.00,,CLR,0.00,VWS V12.07,2013-08-13 07:56:00,
2013-08-13 02:58:00,43.3,43.3,30.00,NNE,24,0.0,0.0,100,0.00,,CLR,0.00,VWS V12.07,2013-08-13 07:58:00,
2013-08-13 03:01:00,43.3,43.3,30.00,NNE,24,0.0,0.0,100,0.00,,CLR,0.00,VWS V12.07,2013-08-13 08:01:00,
2013-08-13 03:02:00,43.3,43.3,30.00,NNE,24,0.0,0.0,100,0.00,,CLR,0.00,VWS V12.07,2013-08-13 08:02:00,
2013-08-13 03:03:00,43.5,43.5,30.00,NNE,24,0.0,0.0,100,0.00,,CLR,0.00,VWS V12.07,2013-08-13 08:03:00,
2013-08-13 03:06:00,43.5,43.5,30.00,NNE,24,0.0,0.0,100,0.00,,,0.00,VWS V12.07,2013-08-13 08:06:00,
2013-08-13 03:07:00,43.5,43.5,30.00,NNE,24,0.0,0.0,100,0.00,,,0.00,VWS V12.07,2013-08-13 08:07:00,
2013-08-13 03:08:00,43.5,43.5,30.00,NNE,24,0.0,0.0,100,0.00,,CLR,0.00,VWS V12.07,2013-08-13 08:08:00,
2013-08-13 03:11:00,43.5,43.5,30.00,NNE,24,0.0,0.0,100,0.00,,CLR,0.00,VWS V12.07,2013-08-13 08:11:00,
2013-08-13 03:12:00,43.6,43.6,30.00,NNE,24,0.0,0.0,100,0.00,,CLR,0.00,VWS V12.07,2013-08-13 08:12:00,
2013-08-13 03:13:00,43.6,43.6,30.00,NNE,24,0.0,0.0,100,0.00,,CLR,0.00,VWS V12.07,2013-08-13 08:13:00,
2013-08-13 03:14:00,43.6,43.6,30.00,NNE,24,0.0,0.0,100,0.00,,CLR,0.00,VWS V12.07,2013-08-13 08:14:00,
2013-08-13 03:16:00,43.6,43.6,30.00,NNE,24,0.0,0.0,100,0.00,,CLR,0.00,VWS V12.07,2013-08-13 08:16:00,
2013-08-13 03:17:00,43.6,43.6,30.00,NNE,24,0.0,0.0,100,0.00,,CLR,0.00,VWS V12.07,2013-08-13 08:17:00,
2013-08-13 03:18:00,43.6,43.6,30.00,NNE,24,0.0,0.0,100,0.00,,CLR,0.00,VWS V12.07,2013-08-13 08:18:00,
2013-08-13 03:19:00,43.6,43.6,30.00,NNE,24,0.0,0.0,100,0.00,,CLR,0.00,VWS V12.07,2013-08-13 08:19:00,
2013-08-13 03:21:00,43.6,43.6,30.00,NNE,24,0.0,0.0,100,0.00,,CLR,0.00,VWS V12.07,2013-08-13 08:21:00,
2013-08-13 03:22:00,43.6,43.6,30.00,NNE,24,0.0,0.0,100,0.00,,CLR,0.00,VWS V12.07,2013-08-13 08:22:00,
2013-08-13 03:23:00,43.6,43.6,30.00,NNE,24,0.0,0.0,100,0.00,,CLR,0.00,VWS V12.07,2013-08-13 08:23:00,
2013-08-13 03:24:00,43.6,43.6,30.00,NNE,24,0.0,0.0,100,0.00,,CLR,0.00,VWS V12.07,2013-08-13 08:24:00,
2013-08-13 03:26:00,43.5,43.5,30.00,NNE,24,0.0,0.0,100,0.00,,CLR,0.00,VWS V12.07,2013-08-13 08:26:00,
2013-08-13 03:28:00,43.5,43.5,30.01,NNE,24,0.0,0.0,100,0.00,,CLR,0.00,VWS V12.07,2013-08-13 08:28:00,
2013-08-13 03:29:00,43.5,43.5,30.01,NNE,24,0.0,0.0,100,0.00,,CLR,0.00,VWS V12.07,2013-08-13 08:29:00,
2013-08-13 03:30:00,43.5,43.5,30.01,NNE,24,0.0,0.0,100,0.00,,CLR,0.00,VWS V12.07,2013-08-13 08:30:00,
2013-08-13 03:31:00,43.6,43.6,30.01,NNE,24,0.0,0.0,100,0.00,,CLR,0.00,VWS V12.07,2013-08-13 08:31:00,
2013-08-13 03:33:00,43.6,43.6,30.01,NNE,24,0.0,0.0,100,0.00,,CLR,0.00,VWS V12.07,2013-08-13 08:33:00,
2013-08-13 03:34:00,43.6,43.6,30.01,NNE,24,0.0,0.0,100,0.00,,,0.00,VWS V12.07,2013-08-13 08:34:00,
2013-08-13 03:35:00,43.6,43.6,30.01,NNE,24,0.0,0.0,100,0.00,,,0.00,VWS V12.07,2013-08-13 08:35:00,
2013-08-13 03:37:00,43.8,43.8,30.01,NNE,24,0.0,0.0,100,0.00,,,0.00,VWS V12.07,2013-08-13 08:37:00,
2013-08-13 03:38:00,43.8,43.8,30.01,NNE,24,0.0,0.0,100,0.00,,,0.00,VWS V12.07,2013-08-13 08:38:00,
2013-08-13 03:39:00,43.8,43.8,30.01,NNE,24,0.0,0.0,100,0.00,,,0.00,VWS V12.07,2013-08-13 08:39:00,
2013-08-13 03:40:00,43.8,43.8,30.01,NNE,24,0.0,0.0,100,0.00,,,0.00,VWS V12.07,2013-08-13 08:40:00,
2013-08-13 03:41:00,43.8,43.8,30.01,NNE,24,0.0,0.0,100,0.00,,,0.00,VWS V12.07,2013-08-13 08:41:00,
2013-08-13 03:42:00,43.8,43.8,30.00,NNE,24,0.0,0.0,100,0.00,,,0.00,VWS V12.07,2013-08-13 08:42:00,
2013-08-13 03:43:00,43.8,43.8,30.00,NNE,24,0.0,0.0,100,0.00,,,0.00,VWS V12.07,2013-08-13 08:43:00,
2013-08-13 03:44:00,43.8,43.8,30.00,NNE,24,0.0,0.0,100,0.00,,,0.00,VWS V12.07,2013-08-13 08:44:00,
2013-08-13 03:46:00,43.8,43.8,30.00,NNE,24,0.0,0.0,100,0.00,,,0.00,VWS V12.07,2013-08-13 08:46:00,
2013-08-13 03:47:00,43.8,43.8,30.00,NNE,24,0.0,0.0,100,0.00,,,0.00,VWS V12.07,2013-08-13 08:47:00,
2013-08-13 03:48:00,43.9,43.9,30.00,NNE,24,0.0,0.0,100,0.00,,,0.00,VWS V12.07,2013-08-13 08:48:00,
2013-08-13 03:50:00,43.9,43.9,30.00,NNE,24,0.0,0.0,100,0.00,,,0.00,VWS V12.07,2013-08-13 08:50:00,
2013-08-13 03:51:00,43.9,43.9,30.00,NNE,24,0.0,0.0,100,0.00,,,0.00,VWS V12.07,2013-08-13 08:51:00,
2013-08-13 03:52:00,43.9,43.9,30.00,NNE,24,0.0,0.0,100,0.00,,,0.00,VWS V12.07,2013-08-13 08:52:00,
2013-08-13 03:53:00,43.9,43.9,30.00,NNE,24,0.0,0.0,100,0.00,,,0.00,VWS V12.07,2013-08-13 08:53:00,
2013-08-13 03:55:00,43.9,43.9,30.00,NNE,24,0.0,0.0,100,0.00,,,0.00,VWS V12.07,2013-08-13 08:55:00,
2013-08-13 03:57:00,43.9,43.9,30.00,NNE,24,0.0,0.0,100,0.00,,,0.00,VWS V12.07,2013-08-13 08:57:00,
2013-08-13 03:59:00,43.9,43.9,30.01,NNE,24,0.0,0.0,100,0.00,,,0.00,VWS V12.07,2013-08-13 08:59:00,
2013-08-13 04:00:00,43.9,43.9,30.01,NNE,24,0.0,0.0,100,0.00,,,0.00,VWS V12.07,2013-08-13 09:00:00,
2013-08-13 04:02:00,43.9,43.9,30.01,NNE,24,0.0,0.0,100,0.00,,,0.00,VWS V12.07,2013-08-13 09:02:00,
2013-08-13 04:03:00,43.9,43.9,30.01,NNE,24,0.0,0.0,100,0.00,,,0.00,VWS V12.07,2013-08-13 09:03:00,
2013-08-13 04:04:00,43.9,43.9,30.01,NNE,24,0.0,0.0,100,0.00,,CLR,0.00,VWS V12.07,2013-08-13 09:04:00,
2013-08-13 04:06:00,44.1,44.1,30.01,NNE,24,0.0,0.0,100,0.00,,CLR,0.00,VWS V12.07,2013-08-13 09:06:00,
2013-08-13 04:07:00,44.1,44.1,30.01,NNE,24,0.0,0.0,100,0.00,,CLR,0.00,VWS V12.07,2013-08-13 09:07:00,
2013-08-13 04:08:00,44.2,44.2,30.01,NNE,24,0.0,0.0,100,0.00,,,0.00,VWS V12.07,2013-08-13 09:08:00,
2013-08-13 04:09:00,44.2,44.2,30.01,NNE,24,0.0,0.0,100,0.00,,,0.00,VWS V12.07,2013-08-13 09:09:00,
2013-08-13 04:11:00,44.2,44.2,30.01,NNE,24,0.0,0.0,100,0.00,,,0.00,VWS V12.07,2013-08-13 09:11:00,
2013-08-13 04:12:00,44.2,44.2,30.01,NNE,24,0.0,0.0,100,0.00,,,0.00,VWS V12.07,2013-08-13 09:12:00,
2013-08-13 04:13:00,44.2,44.2,30.01,NNE,24,0.0,0.0,100,0.00,,,0.00,VWS V12.07,2013-08-13 09:13:00,
2013-08-13 04:14:00,44.2,44.2,30.01,NNE,24,0.0,0.0,100,0.00,,,0.00,VWS V12.07,2013-08-13 09:14:00,
2013-08-13 04:17:00,44.2,44.2,30.01,NNE,24,0.0,0.0,100,0.00,,,0.00,VWS V12.07,2013-08-13 09:17:00,
2013-08-13 04:18:00,44.2,44.2,30.01,NNE,24,0.0,0.0,100,0.00,,,0.00,VWS V12.07,2013-08-13 09:18:00,
2013-08-13 04:19:00,44.2,44.2,30.01,NNE,24,0.0,0.0,100,0.00,,,0.00,VWS V12.07,2013-08-13 09:19:00,
2013-08-13 04:20:00,44.2,44.2,30.01,NNE,24,0.0,0.0,100,0.00,,,0.00,VWS V12.07,2013-08-13 09:20:00,
2013-08-13 04:22:00,44.2,44.2,30.01,NNE,24,0.0,0.0,100,0.00,,,0.00,VWS V12.07,2013-08-13 09:22:00,
2013-08-13 04:23:00,44.2,44.2,30.01,NNE,24,0.0,0.0,100,0.00,,,0.00,VWS V12.07,2013-08-13 09:23:00,
2013-08-13 04:24:00,44.2,44.2,30.01,NNE,24,0.0,0.0,100,0.00,,,0.00,VWS V12.07,2013-08-13 09:24:00,
2013-08-13 04:25:00,44.2,44.2,30.01,NNE,24,0.0,0.0,100,0.00,,,0.00,VWS V12.07,2013-08-13 09:25:00,
2013-08-13 04:27:00,44.2,44.2,30.01,NNE,24,0.0,0.0,100,0.00,,,0.00,VWS V12.07,2013-08-13 09:27:00,
2013-08-13 04:28:00,44.2,44.2,30.01,NNE,24,0.0,0.0,100,0.00,,,0.00,VWS V12.07,2013-08-13 09:28:00,
2013-08-13 04:29:00,44.1,44.1,30.01,NNE,24,0.0,0.0,100,0.00,,,0.00,VWS V12.07,2013-08-13 09:29:00,
2013-08-13 04:30:00,44.1,44.1,30.01,NNE,24,0.0,0.0,100,0.00,,,0.00,VWS V12.07,2013-08-13 09:30:00,
2013-08-13 04:32:00,44.1,44.1,30.01,NNE,24,0.0,0.0,100,0.00,,,0.00,VWS V12.07,2013-08-13 09:32:00,
2013-08-13 04:33:00,44.1,44.1,30.01,NNE,24,0.0,0.0,100,0.00,,,0.00,VWS V12.07,2013-08-13 09:33:00,
2013-08-13 04:34:00,43.9,43.9,30.01,NNE,24,0.0,0.0,100,0.00,,,0.00,VWS V12.07,2013-08-13 09:34:00,
2013-08-13 04:35:00,43.9,43.9,30.01,NNE,24,0.0,0.0,100,0.00,,,0.00,VWS V12.07,2013-08-13 09:35:00,
2013-08-13 04:36:00,43.9,43.9,30.01,NNE,24,0.0,0.0,100,0.00,,,0.00,VWS V12.07,2013-08-13 09:36:00,
2013-08-13 04:38:00,43.9,43.9,30.01,NNE,24,0.0,0.0,100,0.00,,,0.00,VWS V12.07,2013-08-13 09:38:00,
2013-08-13 04:40:00,43.9,43.9,30.01,NNE,24,0.0,0.0,100,0.00,,,0.00,VWS V12.07,2013-08-13 09:40:00,
2013-08-13 04:41:00,43.8,43.8,30.01,NNE,24,0.0,0.0,100,0.00,,,0.00,VWS V12.07,2013-08-13 09:41:00,
2013-08-13 04:43:00,43.8,43.8,30.02,NNE,24,0.0,0.0,100,0.00,,,0.00,VWS V12.07,2013-08-13 09:43:00,
2013-08-13 04:44:00,43.8,43.8,30.02,NNE,24,0.0,0.0,100,0.00,,,0.00,VWS V12.07,2013-08-13 09:44:00,
2013-08-13 04:45:00,43.8,43.8,30.02,NNE,24,0.0,0.0,100,0.00,,,0.00,VWS V12.07,2013-08-13 09:45:00,
2013-08-13 04:46:00,43.8,43.8,30.02,NNE,24,0.0,0.0,100,0.00,,,0.00,VWS V12.07,2013-08-13 09:46:00,
2013-08-13 04:48:00,43.8,43.8,30.02,NNE,24,0.0,0.0,100,0.00,,,0.00,VWS V12.07,2013-08-13 09:48:00,
2013-08-13 04:49:00,43.8,43.8,30.02,NNE,24,0.0,0.0,100,0.00,,,0.00,VWS V12.07,2013-08-13 09:49:00,
2013-08-13 04:50:00,43.8,43.8,30.02,NNE,24,0.0,0.0,100,0.00,,,0.00,VWS V12.07,2013-08-13 09:50:00,
2013-08-13 04:51:00,43.8,43.8,30.02,NNE,24,0.0,0.0,100,0.00,,,0.00,VWS V12.07,2013-08-13 09:51:00,
2013-08-13 04:52:00,43.8,43.8,30.02,NNE,24,0.0,0.0,100,0.00,,,0.00,VWS V12.07,2013-08-13 09:52:00,
2013-08-13 04:53:00,43.8,43.8,30.02,NNE,24,0.0,0.0,100,0.00,,,0.00,VWS V12.07,2013-08-13 09:53:00,
2013-08-13 04:55:00,43.8,43.8,30.02,NNE,24,0.0,0.0,100,0.00,,,0.00,VWS V12.07,2013-08-13 09:55:00,
2013-08-13 04:56:00,43.8,43.8,30.02,NNE,24,0.0,0.0,100,0.00,,,0.00,VWS V12.07,2013-08-13 09:56:00,
2013-08-13 04:57:00,43.8,43.8,30.02,NNE,24,0.0,0.0,100,0.00,,,0.00,VWS V12.07,2013-08-13 09:57:00,
2013-08-13 04:59:00,43.8,43.8,30.02,NNE,24,0.0,0.0,100,0.00,,,0.00,VWS V12.07,2013-08-13 09:59:00,
2013-08-13 05:00:00,43.8,43.8,30.02,NNE,24,0.0,0.0,100,0.00,,,0.00,VWS V12.07,2013-08-13 10:00:00,
2013-08-13 05:02:00,43.9,43.9,30.02,NNE,24,0.0,0.0,100,0.00,,,0.00,VWS V12.07,2013-08-13 10:02:00,
2013-08-13 05:03:00,43.9,43.9,30.02,NNE,24,0.0,0.0,100,0.00,,,0.00,VWS V12.07,2013-08-13 10:03:00,
2013-08-13 05:04:00,43.9,43.9,30.02,NNE,24,0.0,0.0,100,0.00,,,0.00,VWS V12.07,2013-08-13 10:04:00,
2013-08-13 05:06:00,43.9,43.9,30.02,NNE,24,0.0,0.0,100,0.00,,,0.00,VWS V12.07,2013-08-13 10:06:00,
2013-08-13 05:07:00,43.9,43.9,30.02,NNE,24,0.0,0.0,100,0.00,,,0.00,VWS V12.07,2013-08-13 10:07:00,
2013-08-13 05:09:00,43.9,43.9,30.02,NNE,24,0.0,0.0,100,0.00,,,0.00,VWS V12.07,2013-08-13 10:09:00,
2013-08-13 05:11:00,44.1,44.1,30.02,NNE,24,0.0,0.0,100,0.00,,,0.00,VWS V12.07,2013-08-13 10:11:00,
2013-08-13 05:12:00,44.1,44.1,30.02,NNE,24,0.0,0.0,100,0.00,,,0.00,VWS V12.07,2013-08-13 10:12:00,
2013-08-13 05:13:00,44.1,44.1,30.02,NNE,24,0.0,0.0,100,0.00,,,0.00,VWS V12.07,2013-08-13 10:13:00,
2013-08-13 05:14:00,44.1,44.1,30.02,NNE,24,0.0,0.0,100,0.00,,,0.00,VWS V12.07,2013-08-13 10:14:00,
2013-08-13 05:15:00,44.2,44.2,30.02,NNE,24,0.0,0.0,100,0.00,,,0.00,VWS V12.07,2013-08-13 10:15:00,
2013-08-13 05:16:00,44.2,44.2,30.02,NNE,24,0.0,0.0,100,0.00,,,0.00,VWS V12.07,2013-08-13 10:16:00,
2013-08-13 05:17:00,44.2,44.2,30.02,NNE,24,0.0,0.0,100,0.00,,,0.00,VWS V12.07,2013-08-13 10:17:00,
2013-08-13 05:18:00,44.2,44.2,30.02,NNE,24,0.0,0.0,100,0.00,,,0.00,VWS V12.07,2013-08-13 10:18:00,
2013-08-13 05:20:00,44.2,44.2,30.02,NNE,24,0.0,0.0,100,0.00,,,0.00,VWS V12.07,2013-08-13 10:20:00,
2013-08-13 05:21:00,44.3,44.3,30.02,NNE,24,0.0,0.0,100,0.00,,,0.00,VWS V12.07,2013-08-13 10:21:00,
2013-08-13 05:22:00,44.3,44.3,30.02,NNE,24,0.0,0.0,100,0.00,,,0.00,VWS V12.07,2013-08-13 10:22:00,
2013-08-13 05:24:00,44.3,44.3,30.02,NNE,24,0.0,0.0,100,0.00,,,0.00,VWS V12.07,2013-08-13 10:24:00,
2013-08-13 05:25:00,44.3,44.3,30.02,NNE,24,0.0,0.0,100,0.00,,,0.00,VWS V12.07,2013-08-13 10:25:00,
2013-08-13 05:27:00,44.3,44.3,30.02,NNE,24,0.0,0.0,100,0.00,,,0.00,VWS V12.07,2013-08-13 10:27:00,
2013-08-13 05:30:00,44.5,44.5,30.02,NNE,24,0.0,0.0,100,0.00,,,0.00,VWS V12.07,2013-08-13 10:30:00,
2013-08-13 05:32:00,44.5,44.5,30.02,NNE,24,0.0,0.0,100,0.00,,,0.00,VWS V12.07,2013-08-13 10:32:00,
2013-08-13 05:33:00,44.5,44.5,30.02,NNE,24,0.0,0.0,100,0.00,,,0.00,VWS V12.07,2013-08-13 10:33:00,
2013-08-13 05:35:00,44.5,44.5,30.02,NNE,24,0.0,0.0,100,0.00,,BKN050,0.00,VWS V12.07,2013-08-13 10:35:00,
2013-08-13 05:36:00,44.5,44.5,30.02,NNE,24,0.0,0.0,100,0.00,,BKN050,0.00,VWS V12.07,2013-08-13 10:36:00,
2013-08-13 05:37:00,44.5,44.5,30.02,NNE,24,0.0,0.0,100,0.00,,BKN050,0.00,VWS V12.07,2013-08-13 10:37:00,
2013-08-13 05:38:00,44.5,44.5,30.02,NNE,24,0.0,0.0,100,0.00,,BKN050,0.00,VWS V12.07,2013-08-13 10:38:00,
2013-08-13 05:41:00,44.5,44.5,30.02,NNE,24,0.0,0.0,100,0.00,,BKN050,0.00,VWS V12.07,2013-08-13 10:41:00,
2013-08-13 05:42:00,44.5,44.5,30.02,NNE,24,0.0,0.0,100,0.00,,BKN050,0.00,VWS V12.07,2013-08-13 10:42:00,
2013-08-13 05:44:00,44.5,44.5,30.02,NNE,24,0.0,0.0,100,0.00,,BKN050,0.00,VWS V12.07,2013-08-13 10:44:00,
2013-08-13 05:46:00,44.5,44.5,30.02,NNE,24,0.0,0.0,100,0.00,,BKN050,0.00,VWS V12.07,2013-08-13 10:46:00,
2013-08-13 05:47:00,44.5,44.5,30.02,NNE,24,0.0,0.0,100,0.00,,BKN050,0.00,VWS V12.07,2013-08-13 10:47:00,
2013-08-13 05:48:00,44.5,44.5,30.02,NNE,24,0.0,0.0,100,0.00,,BKN050,0.00,VWS V12.07,2013-08-13 10:48:00,
2013-08-13 05:49:00,44.5,44.5,30.02,NNE,24,0.0,0.0,100,0.00,,OVC050,0.00,VWS V12.07,2013-08-13 10:49:00,
2013-08-13 05:51:00,44.5,44.5,30.02,NNE,24,0.0,0.0,100,0.00,,OVC050,0.00,VWS V12.07,2013-08-13 10:51:00,
2013-08-13 05:52:00,44.5,44.5,30.02,NNE,24,0.0,0.0,100,0.00,,OVC050,0.00,VWS V12.07,2013-08-13 10:52:00,
2013-08-13 05:53:00,44.5,44.5,30.02,NNE,24,0.0,0.0,100,0.00,,OVC050,0.00,VWS V12.07,2013-08-13 10:53:00,
2013-08-13 05:54:00,44.5,44.5,30.02,NNE,24,0.0,0.0,100,0.00,,OVC050,0.00,VWS V12.07,2013-08-13 10:54:00,
2013-08-13 05:55:00,44.5,44.5,30.02,NNE,24,0.0,0.0,100,0.00,,OVC050,0.00,VWS V12.07,2013-08-13 10:55:00,
2013-08-13 05:56:00,44.5,44.5,30.02,NNE,24,0.0,0.0,100,0.00,,OVC050,0.00,VWS V12.07,2013-08-13 10:56:00,
2013-08-13 05:57:00,44.5,44.5,30.02,NNE,24,0.0,0.0,100,0.00,,OVC050,0.00,VWS V12.07,2013-08-13 10:57:00,
2013-08-13 05:58:00,44.5,44.5,30.02,NNE,24,0.0,0.0,100,0.00,,OVC050,0.00,VWS V12.07,2013-08-13 10:58:00,
2013-08-13 05:59:00,44.6,44.6,30.02,NNE,24,0.0,0.0,100,0.00,,OVC050,0.00,VWS V12.07,2013-08-13 10:59:00,
2013-08-13 06:00:00,44.6,44.6,30.02,NNE,24,0.0,0.0,100,0.00,,OVC050,0.00,VWS V12.07,2013-08-13 11:00:00,
2013-08-13 06:02:00,44.6,44.6,30.02,NNE,24,0.0,0.0,100,0.00,,OVC050,0.00,VWS V12.07,2013-08-13 11:02:00,
2013-08-13 06:03:00,44.6,44.6,30.02,NNE,24,0.0,0.0,100,0.00,,OVC050,0.00,VWS V12.07,2013-08-13 11:03:00,
2013-08-13 06:04:00,44.6,44.6,30.02,NNE,24,0.0,0.0,100,0.00,,SCT055,0.00,VWS V12.07,2013-08-13 11:04:00,
2013-08-13 06:05:00,44.6,44.6,30.02,NNE,24,0.0,0.0,100,0.00,,SCT055,0.00,VWS V12.07,2013-08-13 11:05:00,
2013-08-13 06:08:00,44.6,44.6,30.02,NNE,24,0.0,0.0,100,0.00,,OVC050,0.00,VWS V12.07,2013-08-13 11:08:00,
2013-08-13 06:09:00,44.6,44.6,30.02,NNE,24,0.0,0.0,100,0.00,,OVC050,0.00,VWS V12.07,2013-08-13 11:09:00,
2013-08-13 06:10:00,44.6,44.6,30.02,NNE,24,0.0,0.0,100,0.00,,OVC050,0.00,VWS V12.07,2013-08-13 11:10:00,
2013-08-13 06:13:00,44.6,44.6,30.02,NNE,24,0.0,0.0,100,0.00,,OVC050,0.00,VWS V12.07,2013-08-13 11:13:00,
2013-08-13 06:14:00,44.6,44.6,30.02,NNE,24,0.0,0.0,100,0.00,,OVC050,0.00,VWS V12.07,2013-08-13 11:14:00,
2013-08-13 06:15:00,44.6,44.6,30.02,NNE,24,0.0,0.0,100,0.00,,OVC050,0.00,VWS V12.07,2013-08-13 11:15:00,
2013-08-13 06:19:00,44.6,44.6,30.02,NNE,24,0.0,0.0,100,0.00,,OVC050,0.00,VWS V12.07,2013-08-13 11:19:00,
2013-08-13 06:20:00,44.6,44.6,30.02,NNE,24,0.0,0.0,100,0.00,,OVC050,0.00,VWS V12.07,2013-08-13 11:20:00,
2013-08-13 06:24:00,44.6,44.6,30.02,NNE,24,0.0,0.0,100,0.00,,OVC050,0.00,VWS V12.07,2013-08-13 11:24:00,
2013-08-13 06:25:00,44.6,44.6,30.02,NNE,24,0.0,0.0,100,0.00,,OVC050,0.00,VWS V12.07,2013-08-13 11:25:00,
2013-08-13 06:27:00,44.6,44.6,30.02,NNE,24,0.0,0.0,100,0.00,,OVC050,0.00,VWS V12.07,2013-08-13 11:27:00,
2013-08-13 06:29:00,44.6,44.6,30.02,NNE,24,0.0,0.0,100,0.00,,OVC050,0.00,VWS V12.07,2013-08-13 11:29:00,
2013-08-13 06:30:00,44.8,44.8,30.02,NNE,24,0.0,0.0,100,0.00,,OVC050,0.00,VWS V12.07,2013-08-13 11:30:00,
2013-08-13 06:31:00,44.8,44.8,30.02,NNE,24,0.0,0.0,100,0.00,,OVC050,0.00,VWS V12.07,2013-08-13 11:31:00,
2013-08-13 06:32:00,44.8,44.8,30.02,NNE,24,0.0,0.0,100,0.00,,OVC050,0.00,VWS V12.07,2013-08-13 11:32:00,
2013-08-13 06:34:00,44.8,44.8,30.02,NNE,24,0.0,0.0,100,0.00,,,0.00,VWS V12.07,2013-08-13 11:34:00,
2013-08-13 06:35:00,44.8,44.8,30.02,NNE,24,0.0,0.0,100,0.00,,,0.00,VWS V12.07,2013-08-13 11:35:00,
2013-08-13 06:36:00,44.8,44.8,30.02,NNE,24,0.0,0.0,100,0.00,,,0.00,VWS V12.07,2013-08-13 11:36:00,
2013-08-13 06:37:00,44.9,44.9,30.02,NNE,24,0.0,0.0,100,0.00,,,0.00,VWS V12.07,2013-08-13 11:37:00,
2013-08-13 06:39:00,44.9,44.9,30.02,NNE,24,0.0,0.0,100,0.00,,,0.00,VWS V12.07,2013-08-13 11:39:00,
2013-08-13 06:40:00,44.9,44.9,30.02,NNE,24,0.0,0.0,100,0.00,,,0.00,VWS V12.07,2013-08-13 11:40:00,
2013-08-13 06:41:00,44.9,44.9,30.02,NNE,24,0.0,0.0,100,0.00,,,0.00,VWS V12.07,2013-08-13 11:41:00,
2013-08-13 06:42:00,44.9,44.9,30.02,NNE,24,0.0,0.0,100,0.00,,,0.00,VWS V12.07,2013-08-13 11:42:00,
2013-08-13 06:45:00,45.1,45.1,30.02,NNE,24,0.0,0.0,100,0.00,,,0.00,VWS V12.07,2013-08-13 11:45:00,
2013-08-13 06:46:00,45.1,45.1,30.02,NNE,24,0.0,0.0,100,0.00,,,0.00,VWS V12.07,2013-08-13 11:46:00,
2013-08-13 06:48:00,45.1,45.1,30.02,NNE,24,0.0,0.0,100,0.00,,CLR,0.00,VWS V12.07,2013-08-13 11:48:00,
2013-08-13 06:50:00,45.2,45.2,30.02,NNE,24,0.0,0.0,100,0.00,,CLR,0.00,VWS V12.07,2013-08-13 11:50:00,
2013-08-13 06:51:00,45.2,45.2,30.02,NNE,24,0.0,0.0,100,0.00,,CLR,0.00,VWS V12.07,2013-08-13 11:51:00,
2013-08-13 06:53:00,45.2,45.2,30.02,NNE,24,0.0,0.0,100,0.00,,CLR,0.00,VWS V12.07,2013-08-13 11:53:00,
2013-08-13 06:55:00,45.4,45.4,30.02,NNE,24,0.0,0.0,100,0.00,,CLR,0.00,VWS V12.07,2013-08-13 11:55:00,
2013-08-13 06:56:00,45.4,45.4,30.02,NNE,24,0.0,0.0,100,0.00,,CLR,0.00,VWS V12.07,2013-08-13 11:56:00,
2013-08-13 06:57:00,45.4,45.4,30.03,NNE,24,0.0,0.0,100,0.00,,CLR,0.00,VWS V12.07,2013-08-13 11:57:00,
2013-08-13 06:58:00,45.4,45.4,30.03,NNE,24,0.0,0.0,100,0.00,,CLR,0.00,VWS V12.07,2013-08-13 11:58:00,
2013-08-13 07:00:00,45.5,45.5,30.03,NNE,24,0.0,0.0,100,0.00,,CLR,0.00,VWS V12.07,2013-08-13 12:00:00,
2013-08-13 07:01:00,45.5,45.5,30.03,NNE,24,0.0,0.0,100,0.00,,CLR,0.00,VWS V12.07,2013-08-13 12:01:00,
2013-08-13 07:03:00,45.5,45.5,30.03,NNE,24,0.0,0.0,100,0.00,,CLR,0.00,VWS V12.07,2013-08-13 12:03:00,
2013-08-13 07:04:00,45.5,45.5,30.03,NNE,24,0.0,0.0,100,0.00,,OVC050,0.00,VWS V12.07,2013-08-13 12:04:00,
2013-08-13 07:05:00,45.7,45.7,30.03,NNE,24,0.0,0.0,100,0.00,,OVC050,0.00,VWS V12.07,2013-08-13 12:05:00,
2013-08-13 07:06:00,45.7,45.7,30.03,NNE,24,0.0,0.0,100,0.00,,OVC050,0.00,VWS V12.07,2013-08-13 12:06:00,
2013-08-13 07:08:00,45.8,45.8,30.03,NNE,24,0.0,0.0,100,0.00,,CLR,0.00,VWS V12.07,2013-08-13 12:08:00,
2013-08-13 07:09:00,45.8,45.8,30.03,NNE,24,0.0,0.0,100,0.00,,CLR,0.00,VWS V12.07,2013-08-13 12:09:00,
2013-08-13 07:11:00,46.0,46.0,30.03,NNE,24,0.0,0.0,100,0.00,,CLR,0.00,VWS V12.07,2013-08-13 12:11:00,
2013-08-13 07:12:00,46.0,46.0,30.03,NNE,24,0.0,0.0,100,0.00,,CLR,0.00,VWS V12.07,2013-08-13 12:12:00,
2013-08-13 07:13:00,46.1,46.1,30.03,NNE,24,0.0,0.0,100,0.00,,CLR,0.00,VWS V12.07,2013-08-13 12:13:00,
2013-08-13 07:15:00,46.1,46.1,30.03,NNE,24,0.0,0.0,100,0.00,,CLR,0.00,VWS V12.07,2013-08-13 12:15:00,
2013-08-13 07:16:00,46.2,46.2,30.03,NNE,24,0.0,0.0,100,0.00,,CLR,0.00,VWS V12.07,2013-08-13 12:16:00,
2013-08-13 07:18:00,46.4,46.4,30.03,NNE,24,0.0,0.0,100,0.00,,CLR,0.00,VWS V12.07,2013-08-13 12:18:00,
2013-08-13 07:20:00,46.5,46.5,30.03,NNE,24,0.0,0.0,100,0.00,,CLR,0.00,VWS V12.07,2013-08-13 12:20:00,
2013-08-13 07:21:00,46.7,46.7,30.03,NNE,24,0.0,0.0,100,0.00,,CLR,0.00,VWS V12.07,2013-08-13 12:21:00,
2013-08-13 07:23:00,46.8,46.8,30.03,NNE,24,0.0,0.0,100,0.00,,CLR,0.00,VWS V12.07,2013-08-13 12:23:00,
2013-08-13 07:25:00,47.0,47.0,30.03,NNE,24,0.0,0.0,100,0.00,,CLR,0.00,VWS V12.07,2013-08-13 12:25:00,
2013-08-13 07:27:00,47.1,47.1,30.03,NNE,24,0.0,0.0,100,0.00,,CLR,0.00,VWS V12.07,2013-08-13 12:27:00,
2013-08-13 07:28:00,47.3,47.3,30.03,NNE,24,0.0,0.0,100,0.00,,CLR,0.00,VWS V12.07,2013-08-13 12:28:00,
2013-08-13 07:29:00,47.3,47.3,30.03,NNE,24,0.0,0.0,100,0.00,,CLR,0.00,VWS V12.07,2013-08-13 12:29:00,
2013-08-13 07:30:00,47.6,47.6,30.03,NE,34,0.0,0.0,100,0.00,,CLR,0.00,VWS V12.07,2013-08-13 12:30:00,
2013-08-13 07:32:00,47.7,47.7,30.03,NE,49,0.0,0.0,100,0.00,,CLR,0.00,VWS V12.07,2013-08-13 12:32:00,
2013-08-13 07:34:00,47.9,47.9,30.03,NE,49,0.0,2.0,100,0.00,,CLR,0.00,VWS V12.07,2013-08-13 12:34:00,
2013-08-13 07:35:00,48.0,48.0,30.03,NE,49,0.0,1.0,100,0.00,,CLR,0.00,VWS V12.07,2013-08-13 12:35:00,
2013-08-13 07:37:00,48.2,48.2,30.03,NE,49,0.0,1.0,100,0.00,,CLR,0.00,VWS V12.07,2013-08-13 12:37:00,
2013-08-13 07:39:00,48.3,48.3,30.03,NE,49,0.0,1.0,100,0.00,,CLR,0.00,VWS V12.07,2013-08-13 12:39:00,
2013-08-13 07:40:00,48.5,48.5,30.03,NE,49,0.0,1.0,100,0.00,,CLR,0.00,VWS V12.07,2013-08-13 12:40:00,
2013-08-13 07:41:00,48.5,48.5,30.03,NE,49,0.0,1.0,100,0.00,,CLR,0.00,VWS V12.07,2013-08-13 12:41:00,
2013-08-13 07:42:00,48.6,48.6,30.03,NE,49,0.0,1.0,100,0.00,,CLR,0.00,VWS V12.07,2013-08-13 12:42:00,
2013-08-13 07:44:00,48.8,48.8,30.03,NE,49,0.0,0.0,100,0.00,,CLR,0.00,VWS V12.07,2013-08-13 12:44:00,
2013-08-13 07:45:00,48.9,48.9,30.03,NE,49,0.0,1.0,100,0.00,,CLR,0.00,VWS V12.07,2013-08-13 12:45:00,
2013-08-13 07:46:00,48.9,48.9,30.03,NE,49,0.0,1.0,100,0.00,,CLR,0.00,VWS V12.07,2013-08-13 12:46:00,
2013-08-13 07:47:00,49.1,49.1,30.03,NE,49,0.0,1.0,100,0.00,,CLR,0.00,VWS V12.07,2013-08-13 12:47:00,
2013-08-13 07:49:00,49.2,49.2,30.03,NE,49,0.0,1.0,100,0.00,,CLR,0.00,VWS V12.07,2013-08-13 12:49:00,
2013-08-13 07:50:00,49.4,49.4,30.03,NE,49,0.0,1.0,100,0.00,,CLR,0.00,VWS V12.07,2013-08-13 12:50:00,
2013-08-13 07:51:00,49.4,49.4,30.03,NE,49,0.0,1.0,100,0.00,,CLR,0.00,VWS V12.07,2013-08-13 12:51:00,
2013-08-13 07:52:00,49.4,49.4,30.03,NE,49,0.0,1.0,100,0.00,,CLR,0.00,VWS V12.07,2013-08-13 12:52:00,
2013-08-13 07:53:00,49.5,49.5,30.03,NE,49,0.0,1.0,100,0.00,,CLR,0.00,VWS V12.07,2013-08-13 12:53:00,
2013-08-13 07:54:00,49.5,49.5,30.03,NE,49,0.0,0.0,100,0.00,,CLR,0.00,VWS V12.07,2013-08-13 12:54:00,
2013-08-13 07:56:00,49.6,49.6,30.03,NE,49,0.0,0.0,100,0.00,,CLR,0.00,VWS V12.07,2013-08-13 12:56:00,
2013-08-13 07:57:00,49.8,49.8,30.03,NE,49,0.0,0.0,100,0.00,,CLR,0.00,VWS V12.07,2013-08-13 12:57:00,
2013-08-13 07:58:00,49.8,49.8,30.04,NE,49,0.0,0.0,100,0.00,,CLR,0.00,VWS V12.07,2013-08-13 12:58:00,
2013-08-13 07:59:00,49.9,49.9,30.04,NE,49,0.0,0.0,100,0.00,,CLR,0.00,VWS V12.07,2013-08-13 12:59:00,
2013-08-13 08:01:00,50.2,50.2,30.04,NE,49,1.0,2.0,100,0.00,,CLR,0.00,VWS V12.07,2013-08-13 13:01:00,
2013-08-13 08:02:00,50.4,50.4,30.04,NE,49,0.0,2.0,100,0.00,,CLR,0.00,VWS V12.07,2013-08-13 13:02:00,
2013-08-13 08:03:00,50.4,50.4,30.04,NE,49,0.0,2.0,100,0.00,,CLR,0.00,VWS V12.07,2013-08-13 13:03:00,
2013-08-13 08:04:00,50.5,50.5,30.04,NE,49,0.0,1.0,100,0.00,,CLR,0.00,VWS V12.07,2013-08-13 13:04:00,
2013-08-13 08:07:00,50.7,50.7,30.04,NE,49,0.0,1.0,100,0.00,,CLR,0.00,VWS V12.07,2013-08-13 13:07:00,
2013-08-13 08:08:00,50.8,50.8,30.04,NE,49,0.0,1.0,100,0.00,,CLR,0.00,VWS V12.07,2013-08-13 13:08:00,
2013-08-13 08:10:00,51.0,51.0,30.04,NE,49,0.0,2.0,100,0.00,,CLR,0.00,VWS V12.07,2013-08-13 13:10:00,
2013-08-13 08:12:00,51.3,51.3,30.04,NE,49,0.0,2.0,100,0.00,,CLR,0.00,VWS V12.07,2013-08-13 13:12:00,
2013-08-13 08:13:00,51.4,51.4,30.04,NE,49,0.0,2.0,100,0.00,,CLR,0.00,VWS V12.07,2013-08-13 13:13:00,
2013-08-13 08:14:00,51.6,51.6,30.04,NE,49,0.0,0.0,100,0.00,,CLR,0.00,VWS V12.07,2013-08-13 13:14:00,
2013-08-13 08:15:00,51.7,51.7,30.04,NE,49,0.0,0.0,100,0.00,,CLR,0.00,VWS V12.07,2013-08-13 13:15:00,
2013-08-13 08:17:00,51.9,51.9,30.04,NE,49,0.0,0.0,100,0.00,,CLR,0.00,VWS V12.07,2013-08-13 13:17:00,
2013-08-13 08:19:00,52.2,52.2,30.04,NE,49,0.0,0.0,100,0.00,,CLR,0.00,VWS V12.07,2013-08-13 13:19:00,
2013-08-13 08:21:00,52.5,52.5,30.04,NE,49,2.0,2.0,100,0.00,,CLR,0.00,VWS V12.07,2013-08-13 13:21:00,
2013-08-13 08:22:00,52.6,52.6,30.04,North,3,3.0,3.0,100,0.00,,CLR,0.00,VWS V12.07,2013-08-13 13:22:00,
2013-08-13 08:23:00,52.8,52.8,30.04,North,3,0.0,3.0,100,0.00,,CLR,0.00,VWS V12.07,2013-08-13 13:23:00,
2013-08-13 08:24:00,52.8,52.8,30.04,NE,37,3.0,4.0,100,0.00,,CLR,0.00,VWS V12.07,2013-08-13 13:24:00,
2013-08-13 08:25:00,53.1,53.1,30.04,NW,308,2.0,5.0,100,0.00,,CLR,0.00,VWS V12.07,2013-08-13 13:25:00,
2013-08-13 08:27:00,53.2,53.2,30.04,NW,308,2.0,5.0,100,0.00,,CLR,0.00,VWS V12.07,2013-08-13 13:27:00,
2013-08-13 08:28:00,53.3,53.3,30.04,North,4,0.0,5.0,100,0.00,,CLR,0.00,VWS V12.07,2013-08-13 13:28:00,
2013-08-13 08:30:00,53.5,53.5,30.04,NW,321,0.0,5.0,100,0.00,,CLR,0.00,VWS V12.07,2013-08-13 13:30:00,
2013-08-13 08:32:00,53.6,53.6,30.04,NW,321,0.0,5.0,100,0.00,,CLR,0.00,VWS V12.07,2013-08-13 13:32:00,
2013-08-13 08:34:00,53.8,53.5,30.04,ENE,63,0.0,2.0,99,0.00,,SCT070,0.00,VWS V12.07,2013-08-13 13:34:00,
2013-08-13 08:35:00,53.9,53.6,30.04,ENE,59,0.0,2.0,99,0.00,,SCT070,0.00,VWS V12.07,2013-08-13 13:35:00,
2013-08-13 08:36:00,53.9,53.6,30.04,ENE,59,0.0,2.0,99,0.00,,SCT070,0.00,VWS V12.07,2013-08-13 13:36:00,
2013-08-13 08:37:00,54.1,53.8,30.04,WNW,297,1.0,2.0,99,0.00,,SCT070,0.00,VWS V12.07,2013-08-13 13:37:00,
2013-08-13 08:39:00,54.2,53.7,30.04,NW,321,0.0,2.0,98,0.00,,SCT070,0.00,VWS V12.07,2013-08-13 13:39:00,
2013-08-13 08:40:00,54.2,53.7,30.04,NW,321,0.0,2.0,98,0.00,,SCT070,0.00,VWS V12.07,2013-08-13 13:40:00,
2013-08-13 08:41:00,54.2,53.7,30.04,NW,321,0.0,2.0,98,0.00,,SCT070,0.00,VWS V12.07,2013-08-13 13:41:00,
2013-08-13 08:42:00,54.4,53.6,30.04,NNE,12,0.0,5.0,97,0.00,,SCT070,0.00,VWS V12.07,2013-08-13 13:42:00,
2013-08-13 08:43:00,54.5,54.0,30.03,NNE,12,0.0,5.0,98,0.00,,SCT070,0.00,VWS V12.07,2013-08-13 13:43:00,
2013-08-13 08:45:00,54.7,54.2,30.03,NNE,12,0.0,0.0,98,0.00,,SCT070,0.00,VWS V12.07,2013-08-13 13:45:00,
2013-08-13 08:46:00,54.8,54.0,30.03,NNE,12,0.0,1.0,97,0.00,,SCT070,0.00,VWS V12.07,2013-08-13 13:46:00,
2013-08-13 08:47:00,55.0,54.2,30.03,NNE,12,0.0,1.0,97,0.00,,SCT070,0.00,VWS V12.07,2013-08-13 13:47:00,
2013-08-13 08:49:00,55.3,54.2,30.03,NNE,12,0.0,1.0,96,0.00,,SCT070,0.00,VWS V12.07,2013-08-13 13:49:00,
2013-08-13 08:50:00,55.4,54.0,30.03,NNE,12,0.0,2.0,95,0.00,,SCT070,0.00,VWS V12.07,2013-08-13 13:50:00,
2013-08-13 08:51:00,55.4,54.0,30.03,NNE,12,0.0,2.0,95,0.00,,SCT070,0.00,VWS V12.07,2013-08-13 13:51:00,
2013-08-13 08:52:00,55.6,54.2,30.03,NNE,12,0.0,2.0,95,0.00,,SCT070,0.00,VWS V12.07,2013-08-13 13:52:00,
2013-08-13 08:54:00,55.6,53.9,30.03,NNE,12,0.0,1.0,94,0.00,,SCT070,0.00,VWS V12.07,2013-08-13 13:54:00,
2013-08-13 08:56:00,55.7,53.7,30.03,North,11,0.0,1.0,93,0.00,,SCT070,0.00,VWS V12.07,2013-08-13 13:56:00,
2013-08-13 08:57:00,55.7,53.7,30.04,NNE,25,0.0,3.0,93,0.00,,SCT070,0.00,VWS V12.07,2013-08-13 13:57:00,
2013-08-13 08:59:00,55.7,53.4,30.04,NNE,30,1.0,5.0,92,0.00,,SCT070,0.00,VWS V12.07,2013-08-13 13:59:00,
2013-08-13 09:01:00,55.9,53.0,30.04,North,349,0.0,5.0,90,0.00,,SCT070,0.00,VWS V12.07,2013-08-13 14:01:00,
2013-08-13 09:02:00,55.9,53.0,30.04,North,349,2.0,5.0,90,0.00,,SCT070,0.00,VWS V12.07,2013-08-13 14:02:00,
2013-08-13 09:04:00,55.9,52.7,30.04,NNE,13,0.0,5.0,89,0.00,,SCT070,0.00,VWS V12.07,2013-08-13 14:04:00,
2013-08-13 09:07:00,56.0,52.8,30.04,NNE,13,0.0,5.0,89,0.00,,SCT070,0.00,VWS V12.07,2013-08-13 14:07:00,
2013-08-13 09:08:00,56.0,52.5,30.04,North,0,1.0,6.0,88,0.00,,SCT070,0.00,VWS V12.07,2013-08-13 14:08:00,
2013-08-13 09:12:00,56.3,52.2,30.04,North,9,0.0,6.0,86,0.00,,SCT070,0.00,VWS V12.07,2013-08-13 14:12:00,
2013-08-13 09:13:00,56.3,52.2,30.05,North,10,0.0,6.0,86,0.00,,SCT070,0.00,VWS V12.07,2013-08-13 14:13:00,
2013-08-13 09:14:00,56.5,52.0,30.05,NE,43,0.0,6.0,85,0.00,,SCT070,0.00,VWS V12.07,2013-08-13 14:14:00,
2013-08-13 09:17:00,56.6,51.5,30.05,SW,227,0.0,6.0,83,0.00,,SCT070,0.00,VWS V12.07,2013-08-13 14:17:00,
2013-08-13 09:18:00,56.7,51.6,30.05,SW,227,0.0,4.0,83,0.00,,SCT070,0.00,VWS V12.07,2013-08-13 14:18:00,
2013-08-13 09:19:00,56.9,51.8,30.05,NNW,328,1.0,4.0,83,0.00,,SCT070,0.00,VWS V12.07,2013-08-13 14:19:00,
2013-08-13 09:22:00,57.3,50.8,30.05,NNW,334,0.0,4.0,79,0.00,,SCT070,0.00,VWS V12.07,2013-08-13 14:22:00,
2013-08-13 09:23:00,57.5,51.0,30.05,NNW,334,0.0,4.0,79,0.00,,SCT070,0.00,VWS V12.07,2013-08-13 14:23:00,
2013-08-13 09:25:00,57.6,50.8,30.05,WSW,249,0.0,4.0,78,0.00,,SCT070,0.00,VWS V12.07,2013-08-13 14:25:00,
2013-08-13 09:28:00,58.0,51.2,30.05,SW,233,1.0,4.0,78,0.00,,SCT070,0.00,VWS V12.07,2013-08-13 14:28:00,
2013-08-13 09:29:00,58.1,50.9,30.05,SW,233,0.0,4.0,77,0.00,,SCT070,0.00,VWS V12.07,2013-08-13 14:29:00,
2013-08-13 09:31:00,58.3,51.1,30.05,SW,233,0.0,4.0,77,0.00,,SCT070,0.00,VWS V12.07,2013-08-13 14:31:00,
2013-08-13 09:34:00,58.4,50.2,30.05,WNW,294,1.0,7.0,74,0.00,,SCT070,0.00,VWS V12.07,2013-08-13 14:34:00,
2013-08-13 09:35:00,58.6,51.1,30.05,West,278,0.0,2.0,76,0.00,,SCT070,0.00,VWS V12.07,2013-08-13 14:35:00,
2013-08-13 09:37:00,58.7,51.2,30.05,West,278,0.0,2.0,76,0.00,,SCT070,0.00,VWS V12.07,2013-08-13 14:37:00,
2013-08-13 09:39:00,59.0,51.1,30.05,NE,52,0.0,4.0,75,0.00,,BKN070,0.00,VWS V12.07,2013-08-13 14:39:00,
2013-08-13 09:40:00,59.0,51.1,30.05,NE,52,0.0,4.0,75,0.00,,BKN070,0.00,VWS V12.07,2013-08-13 14:40:00,
2013-08-13 09:41:00,59.2,50.9,30.05,ENE,66,3.0,4.0,74,0.00,,BKN070,0.00,VWS V12.07,2013-08-13 14:41:00,
2013-08-13 09:42:00,59.2,50.6,30.05,ENE,75,0.0,4.0,73,0.00,,BKN070,0.00,VWS V12.07,2013-08-13 14:42:00,
2013-08-13 09:45:00,59.3,50.3,30.05,WSW,254,1.0,1.0,72,0.00,,BKN070,0.00,VWS V12.07,2013-08-13 14:45:00,
2013-08-13 09:46:00,59.5,50.8,30.05,West,259,1.0,2.0,73,0.00,,BKN070,0.00,VWS V12.07,2013-08-13 14:46:00,
2013-08-13 09:47:00,59.5,50.5,30.05,West,259,0.0,2.0,72,0.00,,BKN070,0.00,VWS V12.07,2013-08-13 14:47:00,
2013-08-13 09:48:00,59.5,50.5,30.05,West,259,0.0,2.0,72,0.00,,BKN070,0.00,VWS V12.07,2013-08-13 14:48:00,
2013-08-13 09:50:00,59.6,49.4,30.05,NE,49,1.0,2.0,69,0.00,,BKN070,0.00,VWS V12.07,2013-08-13 14:50:00,
2013-08-13 09:51:00,59.8,49.6,30.05,NE,49,0.0,2.0,69,0.00,,BKN070,0.00,VWS V12.07,2013-08-13 14:51:00,
2013-08-13 09:53:00,59.9,49.3,30.05,NW,313,1.0,3.0,68,0.00,,BKN070,0.00,VWS V12.07,2013-08-13 14:53:00,
2013-08-13 09:56:00,59.8,48.8,30.05,WNW,282,0.0,2.0,67,0.00,,BKN070,0.00,VWS V12.07,2013-08-13 14:56:00,
2013-08-13 09:57:00,59.8,48.8,30.05,WNW,282,0.0,2.0,67,0.00,,BKN070,0.00,VWS V12.07,2013-08-13 14:57:00,
2013-08-13 09:58:00,59.6,48.6,30.05,WNW,282,0.0,2.0,67,0.00,,BKN070,0.00,VWS V12.07,2013-08-13 14:58:00,
2013-08-13 10:02:00,59.5,48.9,30.05,NNW,340,0.0,6.0,68,0.00,,BKN070,0.00,VWS V12.07,2013-08-13 15:02:00,
2013-08-13 10:03:00,59.3,49.1,30.05,ENE,67,0.0,6.0,69,0.00,,BKN070,0.00,VWS V12.07,2013-08-13 15:03:00,
2013-08-13 10:04:00,59.3,49.1,30.05,ENE,67,0.0,6.0,69,0.00,,BKN070,0.00,VWS V12.07,2013-08-13 15:04:00,
2013-08-13 10:07:00,59.2,49.0,30.05,NW,311,0.0,6.0,69,0.00,,SCT014,0.00,VWS V12.07,2013-08-13 15:07:00,
2013-08-13 10:08:00,59.2,49.0,30.05,NE,53,1.0,6.0,69,0.00,,SCT014,0.00,VWS V12.07,2013-08-13 15:08:00,
2013-08-13 10:09:00,59.2,49.0,30.05,NE,53,0.0,6.0,69,0.00,,BKN070,0.00,VWS V12.07,2013-08-13 15:09:00,
2013-08-13 10:13:00,58.9,49.5,30.06,NW,321,0.0,6.0,71,0.00,,BKN070,0.00,VWS V12.07,2013-08-13 15:13:00,
2013-08-13 10:14:00,59.2,49.4,30.06,North,8,2.0,3.0,70,0.00,,BKN070,0.00,VWS V12.07,2013-08-13 15:14:00,
2013-08-13 10:15:00,59.2,49.4,30.06,North,8,0.0,3.0,70,0.00,,BKN070,0.00,VWS V12.07,2013-08-13 15:15:00,
2013-08-13 10:18:00,59.3,49.9,30.06,NNE,15,0.0,3.0,71,0.00,,BKN070,0.00,VWS V12.07,2013-08-13 15:18:00,
2013-08-13 10:19:00,59.3,49.9,30.06,NNE,15,0.0,3.0,71,0.00,,BKN070,0.00,VWS V12.07,2013-08-13 15:19:00,
2013-08-13 10:20:00,59.3,49.9,30.06,NNE,15,1.0,3.0,71,0.00,,BKN070,0.00,VWS V12.07,2013-08-13 15:20:00,
2013-08-13 10:23:00,59.2,49.4,30.06,ENE,68,1.0,4.0,70,0.00,,BKN070,0.00,VWS V12.07,2013-08-13 15:23:00,
2013-08-13 10:24:00,59.2,49.4,30.06,North,353,1.0,4.0,70,0.00,,BKN070,0.00,VWS V12.07,2013-08-13 15:24:00,
2013-08-13 10:25:00,59.0,49.6,30.06,North,7,0.0,4.0,71,0.00,,BKN070,0.00,VWS V12.07,2013-08-13 15:25:00,
2013-08-13 10:26:00,59.0,49.6,30.06,North,7,0.0,4.0,71,0.00,,BKN070,0.00,VWS V12.07,2013-08-13 15:26:00,
2013-08-13 10:28:00,58.9,49.5,30.07,North,7,0.0,4.0,71,0.00,,BKN070,0.00,VWS V12.07,2013-08-13 15:28:00,
2013-08-13 10:30:00,58.7,49.7,30.07,North,7,0.0,4.0,72,0.00,,BKN070,0.00,VWS V12.07,2013-08-13 15:30:00,
2013-08-13 10:31:00,58.7,49.7,30.07,ESE,115,0.0,4.0,72,0.00,,BKN070,0.00,VWS V12.07,2013-08-13 15:31:00,
2013-08-13 10:34:00,58.7,49.7,30.07,NNE,27,0.0,5.0,72,0.00,,BKN065,0.00,VWS V12.07,2013-08-13 15:34:00,
2013-08-13 10:35:00,58.7,50.1,30.07,NNE,27,0.0,0.0,73,0.00,,BKN065,0.00,VWS V12.07,2013-08-13 15:35:00,
2013-08-13 10:36:00,58.7,50.1,30.07,NNE,27,0.0,0.0,73,0.00,,BKN065,0.00,VWS V12.07,2013-08-13 15:36:00,
2013-08-13 10:40:00,59.2,50.6,30.07,ENE,77,1.0,5.0,73,0.00,,BKN065,0.00,VWS V12.07,2013-08-13 15:40:00,
2013-08-13 10:41:00,59.5,49.7,30.07,ENE,77,0.0,5.0,70,0.00,,BKN065,0.00,VWS V12.07,2013-08-13 15:41:00,
2013-08-13 10:45:00,59.8,50.0,30.06,NW,304,2.0,3.0,70,0.00,,BKN065,0.00,VWS V12.07,2013-08-13 15:45:00,
2013-08-13 10:46:00,59.8,50.4,30.06,NE,35,2.0,4.0,71,0.00,,BKN065,0.00,VWS V12.07,2013-08-13 15:46:00,
2013-08-13 10:47:00,59.8,49.6,30.06,NNE,32,0.0,4.0,69,0.00,,BKN065,0.00,VWS V12.07,2013-08-13 15:47:00,
2013-08-13 10:50:00,59.8,49.6,30.06,NE,36,0.0,4.0,69,0.00,,OVC065,0.00,VWS V12.07,2013-08-13 15:50:00,
2013-08-13 10:51:00,59.8,49.6,30.06,NE,36,0.0,4.0,69,0.00,,OVC065,0.00,VWS V12.07,2013-08-13 15:51:00,
2013-08-13 10:52:00,59.8,50.4,30.06,NE,36,1.0,4.0,71,0.00,,OVC065,0.00,VWS V12.07,2013-08-13 15:52:00,
2013-08-13 10:55:00,59.6,49.4,30.06,NNE,12,1.0,3.0,69,0.00,,OVC065,0.00,VWS V12.07,2013-08-13 15:55:00,
2013-08-13 10:56:00,59.5,50.1,30.06,NNE,12,0.0,3.0,71,0.00,,OVC065,0.00,VWS V12.07,2013-08-13 15:56:00,
2013-08-13 10:58:00,59.3,49.5,30.07,North,0,1.0,0.0,70,0.00,,OVC065,0.00,VWS V12.07,2013-08-13 15:58:00,
2013-08-13 11:01:00,59.0,49.2,30.07,ESE,110,0.0,4.0,70,0.00,,OVC065,0.00,VWS V12.07,2013-08-13 16:01:00,
2013-08-13 11:02:00,58.9,49.9,30.07,ESE,110,0.0,4.0,72,0.00,,OVC065,0.00,VWS V12.07,2013-08-13 16:02:00,
2013-08-13 11:03:00,58.9,49.9,30.07,ENE,78,0.0,4.0,72,0.00,,OVC065,0.00,VWS V12.07,2013-08-13 16:03:00,
2013-08-13 11:06:00,58.7,49.7,30.07,ENE,78,0.0,2.0,72,0.00,,OVC065,0.00,VWS V12.07,2013-08-13 16:06:00,
2013-08-13 11:07:00,58.7,50.5,30.07,East,79,0.0,2.0,74,0.00,,OVC065,0.00,VWS V12.07,2013-08-13 16:07:00,
2013-08-13 11:09:00,58.7,50.1,30.07,ENE,78,0.0,2.0,73,0.00,,OVC065,0.00,VWS V12.07,2013-08-13 16:09:00,
2013-08-13 11:12:00,58.7,50.1,30.07,East,79,0.0,2.0,73,0.00,,OVC065,0.00,VWS V12.07,2013-08-13 16:12:00,
2013-08-13 11:13:00,58.7,49.7,30.08,ENE,78,0.0,2.0,72,0.00,,OVC065,0.00,VWS V12.07,2013-08-13 16:13:00,
2013-08-13 11:14:00,58.7,49.3,30.08,NNE,27,1.0,2.0,71,0.00,,OVC065,0.00,VWS V12.07,2013-08-13 16:14:00,
2013-08-13 11:17:00,58.9,50.3,30.08,NNE,27,0.0,2.0,73,0.00,,OVC065,0.00,VWS V12.07,2013-08-13 16:17:00,
2013-08-13 11:19:00,59.2,50.9,30.08,NNE,27,0.0,2.0,74,0.00,,OVC065,0.00,VWS V12.07,2013-08-13 16:19:00,
2013-08-13 11:22:00,59.2,49.4,30.08,NNW,342,1.0,6.0,70,0.00,,OVC065,0.00,VWS V12.07,2013-08-13 16:22:00,
2013-08-13 11:23:00,59.2,49.0,30.08,NNW,342,0.0,6.0,69,0.00,,OVC065,0.00,VWS V12.07,2013-08-13 16:23:00,
2013-08-13 11:24:00,59.3,49.5,30.08,NW,314,0.0,6.0,70,0.00,,OVC065,0.00,VWS V12.07,2013-08-13 16:24:00,
2013-08-13 11:25:00,59.2,49.4,30.08,NW,314,0.0,2.0,70,0.00,,OVC065,0.00,VWS V12.07,2013-08-13 16:25:00,
2013-08-13 11:27:00,59.2,49.0,30.08,North,10,1.0,6.0,69,0.00,,OVC065,0.00,VWS V12.07,2013-08-13 16:27:00,
2013-08-13 11:28:00,59.0,49.2,30.08,North,10,0.0,6.0,70,0.00,,OVC065,0.00,VWS V12.07,2013-08-13 16:28:00,
2013-08-13 11:30:00,59.0,48.9,30.08,North,10,0.0,6.0,69,0.00,,OVC065,0.00,VWS V12.07,2013-08-13 16:30:00,
2013-08-13 11:32:00,58.9,48.8,30.08,ENE,61,1.0,6.0,69,0.00,,OVC055,0.00,VWS V12.07,2013-08-13 16:32:00,
2013-08-13 11:33:00,58.7,49.0,30.08,West,281,0.0,6.0,70,0.00,,OVC055,0.00,VWS V12.07,2013-08-13 16:33:00,
2013-08-13 11:35:00,58.6,48.9,30.08,NE,38,1.0,1.0,70,0.00,,OVC055,0.00,VWS V12.07,2013-08-13 16:35:00,
2013-08-13 11:38:00,58.4,49.0,30.08,NNE,22,0.0,6.0,71,0.00,,OVC055,0.00,VWS V12.07,2013-08-13 16:38:00,
2013-08-13 11:39:00,58.3,49.0,30.08,NNE,22,0.0,6.0,71,0.00,,OVC055,0.00,VWS V12.07,2013-08-13 16:39:00,
2013-08-13 11:40:00,58.3,49.0,30.08,NNE,22,0.0,6.0,71,0.00,,OVC055,0.00,VWS V12.07,2013-08-13 16:40:00,
2013-08-13 11:43:00,58.3,49.3,30.08,NW,307,0.0,6.0,72,0.00,,OVC055,0.00,VWS V12.07,2013-08-13 16:43:00,
2013-08-13 11:45:00,58.3,49.3,30.08,NW,307,0.0,1.0,72,0.00,,OVC055,0.00,VWS V12.07,2013-08-13 16:45:00,
2013-08-13 11:48:00,58.3,48.6,30.08,NE,38,0.0,3.0,70,0.00,,OVC055,0.00,VWS V12.07,2013-08-13 16:48:00,
2013-08-13 11:50:00,58.3,48.6,30.08,SSW,208,0.0,3.0,70,0.00,,OVC055,0.00,VWS V12.07,2013-08-13 16:50:00,
2013-08-13 11:53:00,58.7,48.6,30.08,ESE,103,0.0,3.0,69,0.00,,OVC055,0.00,VWS V12.07,2013-08-13 16:53:00,
2013-08-13 11:54:00,58.7,48.6,30.08,ESE,103,0.0,3.0,69,0.00,,OVC055,0.00,VWS V12.07,2013-08-13 16:54:00,
2013-08-13 11:55:00,58.9,48.8,30.08,ESE,103,0.0,2.0,69,0.00,,OVC055,0.00,VWS V12.07,2013-08-13 16:55:00,
2013-08-13 11:56:00,58.9,48.8,30.08,ESE,103,0.0,2.0,69,0.00,,OVC055,0.00,VWS V12.07,2013-08-13 16:56:00,
2013-08-13 11:58:00,59.3,48.4,30.08,SW,233,0.0,4.0,67,0.00,,OVC055,0.00,VWS V12.07,2013-08-13 16:58:00,
2013-08-13 11:59:00,59.3,48.4,30.08,SW,233,0.0,4.0,67,0.00,,OVC055,0.00,VWS V12.07,2013-08-13 16:59:00,
2013-08-13 12:00:00,59.5,48.5,30.08,East,80,0.0,4.0,67,0.00,,OVC055,0.00,VWS V12.07,2013-08-13 17:00:00,
2013-08-13 12:01:00,59.5,48.5,30.08,East,80,1.0,4.0,67,0.00,,OVC055,0.00,VWS V12.07,2013-08-13 17:01:00,
2013-08-13 12:03:00,59.6,48.6,30.08,ENE,78,2.0,4.0,67,0.00,,OVC055,0.00,VWS V12.07,2013-08-13 17:03:00,
2013-08-13 12:04:00,59.6,48.6,30.08,ENE,78,0.0,4.0,67,0.00,,OVC055,0.00,VWS V12.07,2013-08-13 17:04:00,
2013-08-13 12:06:00,59.5,48.2,30.08,North,5,0.0,4.0,66,0.00,,OVC055,0.00,VWS V12.07,2013-08-13 17:06:00,
2013-08-13 12:07:00,59.3,48.4,30.08,North,5,0.0,4.0,67,0.00,,OVC055,0.00,VWS V12.07,2013-08-13 17:07:00,
2013-08-13 12:12:00,58.9,48.4,30.09,NE,46,2.0,4.0,68,0.00,,OVC055,0.00,VWS V12.07,2013-08-13 17:12:00,
2013-08-13 12:13:00,58.9,48.4,30.09,NE,39,1.0,4.0,68,0.00,,OVC055,0.00,VWS V12.07,2013-08-13 17:13:00,
2013-08-13 12:17:00,58.6,48.5,30.09,ENE,75,0.0,3.0,69,0.00,,OVC055,0.00,VWS V12.07,2013-08-13 17:17:00,
2013-08-13 12:18:00,58.6,48.5,30.09,ENE,75,0.0,3.0,69,0.00,,OVC055,0.00,VWS V12.07,2013-08-13 17:18:00,
2013-08-13 12:19:00,58.6,48.9,30.09,ENE,75,0.0,3.0,70,0.00,,OVC055,0.00,VWS V12.07,2013-08-13 17:19:00,
2013-08-13 12:23:00,58.9,49.2,30.09,NE,39,0.0,3.0,70,0.00,,OVC055,0.00,VWS V12.07,2013-08-13 17:23:00,
2013-08-13 12:24:00,59.0,48.5,30.09,NE,55,0.0,3.0,68,0.00,,OVC055,0.00,VWS V12.07,2013-08-13 17:24:00,
2013-08-13 12:28:00,59.5,48.5,30.08,ENE,57,1.0,2.0,67,0.00,,OVC055,0.00,VWS V12.07,2013-08-13 17:28:00,
2013-08-13 12:29:00,59.6,48.6,30.08,ENE,57,0.0,2.0,67,0.00,,OVC055,0.00,VWS V12.07,2013-08-13 17:29:00,
2013-08-13 12:33:00,59.8,48.4,30.08,SSW,195,0.0,4.0,66,0.00,,OVC055,0.00,VWS V12.07,2013-08-13 17:33:00,
2013-08-13 12:34:00,59.9,48.5,30.08,SSW,195,0.0,4.0,66,0.00,,OVC055,0.00,VWS V12.07,2013-08-13 17:34:00,
2013-08-13 12:35:00,59.8,48.0,30.08,SSW,195,0.0,1.0,65,0.00,,OVC055,0.00,VWS V12.07,2013-08-13 17:35:00,
2013-08-13 12:38:00,59.8,48.4,30.08,SSW,195,0.0,1.0,66,0.00,,OVC055,0.00,VWS V12.07,2013-08-13 17:38:00,
2013-08-13 12:39:00,59.8,48.4,30.08,SSW,195,0.0,1.0,66,0.00,,OVC055,0.00,VWS V12.07,2013-08-13 17:39:00,
2013-08-13 12:40:00,59.6,47.0,30.08,ENE,68,0.0,2.0,63,0.00,,OVC055,0.00,VWS V12.07,2013-08-13 17:40:00,
2013-08-13 12:43:00,59.6,47.8,30.09,NNE,31,0.0,3.0,65,0.00,,OVC055,0.00,VWS V12.07,2013-08-13 17:43:00,
2013-08-13 12:44:00,59.6,47.8,30.09,NNE,31,0.0,3.0,65,0.00,,OVC055,0.00,VWS V12.07,2013-08-13 17:44:00,
2013-08-13 12:45:00,59.6,47.0,30.09,NNE,31,1.0,1.0,63,0.00,,OVC055,0.00,VWS V12.07,2013-08-13 17:45:00,
2013-08-13 12:48:00,59.9,46.4,30.09,NNW,340,0.0,4.0,61,0.00,,OVC065,0.00,VWS V12.07,2013-08-13 17:48:00,
2013-08-13 12:49:00,59.9,46.4,30.09,NNW,340,0.0,4.0,61,0.00,,OVC065,0.00,VWS V12.07,2013-08-13 17:49:00,
2013-08-13 12:51:00,59.9,46.4,30.09,North,11,0.0,4.0,61,0.00,,OVC065,0.00,VWS V12.07,2013-08-13 17:51:00,
2013-08-13 12:53:00,59.9,46.4,30.09,North,11,0.0,4.0,61,0.00,,OVC065,0.00,VWS V12.07,2013-08-13 17:53:00,
2013-08-13 12:54:00,59.9,46.4,30.09,North,9,0.0,4.0,61,0.00,,OVC065,0.00,VWS V12.07,2013-08-13 17:54:00,
2013-08-13 12:56:00,59.8,46.3,30.09,North,0,1.0,3.0,61,0.00,,OVC065,0.00,VWS V12.07,2013-08-13 17:56:00,
2013-08-13 12:59:00,59.6,45.7,30.08,NW,316,0.0,4.0,60,0.00,,OVC065,0.00,VWS V12.07,2013-08-13 17:59:00,
2013-08-13 13:00:00,59.6,45.7,30.08,North,353,1.0,4.0,60,0.00,,OVC065,0.00,VWS V12.07,2013-08-13 18:00:00,
2013-08-13 13:01:00,59.5,45.6,30.08,ESE,116,0.0,4.0,60,0.00,,OVC065,0.00,VWS V12.07,2013-08-13 18:01:00,
2013-08-13 13:04:00,59.3,45.4,30.08,NW,304,0.0,0.0,60,0.00,,OVC065,0.00,VWS V12.07,2013-08-13 18:04:00,
2013-08-13 13:05:00,59.2,45.3,30.08,NW,304,0.0,1.0,60,0.00,,OVC065,0.00,VWS V12.07,2013-08-13 18:05:00,
2013-08-13 13:06:00,59.2,45.3,30.08,NNE,32,0.0,5.0,60,0.00,,OVC065,0.00,VWS V12.07,2013-08-13 18:06:00,
2013-08-13 13:09:00,59.0,45.6,30.08,NNE,32,0.0,5.0,61,0.00,,OVC065,0.00,VWS V12.07,2013-08-13 18:09:00,
2013-08-13 13:10:00,59.0,45.6,30.08,NNE,32,0.0,5.0,61,0.00,,OVC065,0.00,VWS V12.07,2013-08-13 18:10:00,
2013-08-13 13:11:00,58.9,45.1,30.08,NE,40,0.0,5.0,60,0.00,,OVC065,0.00,VWS V12.07,2013-08-13 18:11:00,
2013-08-13 13:15:00,58.7,45.3,30.09,NNE,30,0.0,1.0,61,0.00,,OVC065,0.00,VWS V12.07,2013-08-13 18:15:00,
2013-08-13 13:17:00,58.7,45.7,30.09,East,90,0.0,1.0,62,0.00,,OVC065,0.00,VWS V12.07,2013-08-13 18:17:00,
2013-08-13 13:20:00,58.7,46.2,30.09,ESE,103,0.0,1.0,63,0.00,,OVC065,0.00,VWS V12.07,2013-08-13 18:20:00,
2013-08-13 13:21:00,58.9,45.9,30.09,South,186,0.0,2.0,62,0.00,,OVC065,0.00,VWS V12.07,2013-08-13 18:21:00,
2013-08-13 13:22:00,59.0,46.4,30.09,South,186,0.0,2.0,63,0.00,,OVC065,0.00,VWS V12.07,2013-08-13 18:22:00,
2013-08-13 13:25:00,59.6,46.6,30.09,ENE,57,0.0,2.0,62,0.00,,OVC065,0.00,VWS V12.07,2013-08-13 18:25:00,
2013-08-13 13:26:00,59.9,46.0,30.09,ENE,57,0.0,2.0,60,0.00,,OVC065,0.00,VWS V12.07,2013-08-13 18:26:00,
2013-08-13 13:27:00,60.1,45.3,30.09,ENE,57,0.0,2.0,58,0.00,,OVC065,0.00,VWS V12.07,2013-08-13 18:27:00,
2013-08-13 13:28:00,60.2,46.3,30.09,ENE,57,0.0,2.0,60,0.00,,OVC065,0.00,VWS V12.07,2013-08-13 18:28:00,
2013-08-13 13:30:00,60.2,45.4,30.09,ENE,60,2.0,4.0,58,0.00,,OVC065,0.00,VWS V12.07,2013-08-13 18:30:00,
2013-08-13 13:31:00,60.4,45.6,30.09,NNE,32,0.0,4.0,58,0.00,,OVC065,0.00,VWS V12.07,2013-08-13 18:31:00,
2013-08-13 13:32:00,60.7,46.8,30.09,NNE,32,0.0,4.0,60,0.00,,OVC055,0.00,VWS V12.07,2013-08-13 18:32:00,
2013-08-13 13:33:00,61.0,46.1,30.09,NNE,32,0.0,4.0,58,0.00,,OVC055,0.00,VWS V12.07,2013-08-13 18:33:00,
2013-08-13 13:35:00,61.3,47.3,30.09,NNE,29,2.0,3.0,60,0.00,,OVC055,0.00,VWS V12.07,2013-08-13 18:35:00,
2013-08-13 13:36:00,61.3,46.9,30.09,ENE,59,0.0,3.0,59,0.00,,OVC055,0.00,VWS V12.07,2013-08-13 18:36:00,
2013-08-13 13:37:00,61.5,46.6,30.09,ENE,59,0.0,3.0,58,0.00,,OVC055,0.00,VWS V12.07,2013-08-13 18:37:00,
2013-08-13 13:38:00,61.6,46.2,30.09,NE,56,0.0,3.0,57,0.00,,OVC055,0.00,VWS V12.07,2013-08-13 18:38:00,
2013-08-13 13:40:00,61.8,46.4,30.09,NNE,19,2.0,4.0,57,0.00,,OVC055,0.00,VWS V12.07,2013-08-13 18:40:00,
2013-08-13 13:41:00,61.8,45.0,30.09,NNE,19,0.0,4.0,54,0.00,,OVC055,0.00,VWS V12.07,2013-08-13 18:41:00,
2013-08-13 13:42:00,61.8,46.9,30.08,NE,45,0.0,4.0,58,0.00,,OVC055,0.00,VWS V12.07,2013-08-13 18:42:00,
2013-08-13 13:45:00,61.6,46.2,30.08,NE,43,0.0,2.0,57,0.00,,OVC055,0.00,VWS V12.07,2013-08-13 18:45:00,
2013-08-13 13:46:00,61.5,45.7,30.08,ENE,70,0.0,3.0,56,0.00,,OVC055,0.00,VWS V12.07,2013-08-13 18:46:00,
2013-08-13 13:48:00,61.3,47.3,30.08,NW,317,0.0,3.0,60,0.00,,OVC055,0.00,VWS V12.07,2013-08-13 18:48:00,
2013-08-13 13:50:00,61.2,45.9,30.08,NW,317,0.0,3.0,57,0.00,,OVC055,0.00,VWS V12.07,2013-08-13 18:50:00,
2013-08-13 13:51:00,61.0,46.6,30.08,NE,54,2.0,3.0,59,0.00,,OVC055,0.00,VWS V12.07,2013-08-13 18:51:00,
2013-08-13 13:52:00,61.0,46.6,30.08,NE,35,3.0,4.0,59,0.00,,OVC055,0.00,VWS V12.07,2013-08-13 18:52:00,
2013-08-13 13:53:00,60.9,45.6,30.08,NW,321,1.0,5.0,57,0.00,,OVC055,0.00,VWS V12.07,2013-08-13 18:53:00,
2013-08-13 13:55:00,60.7,45.4,30.08,NW,323,0.0,4.0,57,0.00,,OVC055,0.00,VWS V12.07,2013-08-13 18:55:00,
2013-08-13 13:57:00,60.7,45.8,30.09,NW,323,0.0,4.0,58,0.00,,OVC055,0.00,VWS V12.07,2013-08-13 18:57:00,
2013-08-13 13:58:00,60.9,46.0,30.09,NW,323,0.0,4.0,58,0.00,,OVC055,0.00,VWS V12.07,2013-08-13 18:58:00,
2013-08-13 14:01:00,61.2,45.9,30.09,NW,318,2.0,0.0,57,0.00,,OVC055,0.00,VWS V12.07,2013-08-13 19:01:00,
2013-08-13 14:02:00,61.5,45.2,30.09,NE,54,1.0,6.0,55,0.00,,OVC055,0.00,VWS V12.07,2013-08-13 19:02:00,
2013-08-13 14:03:00,61.6,45.3,30.09,NE,54,2.0,6.0,55,0.00,,OVC055,0.00,VWS V12.07,2013-08-13 19:03:00,
2013-08-13 14:04:00,61.8,45.0,30.09,North,0,0.0,6.0,54,0.00,,OVC055,0.00,VWS V12.07,2013-08-13 19:04:00,
2013-08-13 14:06:00,62.0,44.7,30.09,NNE,25,1.0,6.0,53,0.00,,OVC055,0.00,VWS V12.07,2013-08-13 19:06:00,
2013-08-13 14:07:00,62.0,45.2,30.09,NNE,32,4.0,6.0,54,0.00,,OVC055,0.00,VWS V12.07,2013-08-13 19:07:00,
2013-08-13 14:09:00,62.0,45.2,30.09,NNE,33,2.0,6.0,54,0.00,,OVC055,0.00,VWS V12.07,2013-08-13 19:09:00,
2013-08-13 14:10:00,62.0,46.6,30.09,NNE,33,0.0,6.0,57,0.00,,OVC055,0.00,VWS V12.07,2013-08-13 19:10:00,
2013-08-13 14:11:00,62.0,46.1,30.09,NNE,33,0.0,6.0,56,0.00,,OVC055,0.00,VWS V12.07,2013-08-13 19:11:00,
2013-08-13 14:13:00,61.8,45.5,30.08,NNE,25,0.0,6.0,55,0.00,,OVC055,0.00,VWS V12.07,2013-08-13 19:13:00,
2013-08-13 14:14:00,61.6,44.8,30.08,NNE,27,0.0,6.0,54,0.00,,OVC055,0.00,VWS V12.07,2013-08-13 19:14:00,
2013-08-13 14:15:00,61.5,43.7,30.08,NNE,27,0.0,6.0,52,0.00,,OVC055,0.00,VWS V12.07,2013-08-13 19:15:00,
2013-08-13 14:17:00,61.2,44.4,30.08,NNE,27,0.0,6.0,54,0.00,,OVC055,0.00,VWS V12.07,2013-08-13 19:17:00,
2013-08-13 14:18:00,61.2,44.9,30.08,SSW,192,0.0,6.0,55,0.00,,OVC055,0.00,VWS V12.07,2013-08-13 19:18:00,
2013-08-13 14:19:00,61.0,45.2,30.08,SSW,192,1.0,6.0,56,0.00,,OVC055,0.00,VWS V12.07,2013-08-13 19:19:00,
2013-08-13 14:20:00,60.9,44.6,30.08,North,10,4.0,6.0,55,0.00,,OVC055,0.00,VWS V12.07,2013-08-13 19:20:00,
2013-08-13 14:22:00,60.9,45.6,30.08,North,6,1.0,6.0,57,0.00,,OVC055,0.00,VWS V12.07,2013-08-13 19:22:00,
2013-08-13 14:23:00,60.7,44.5,30.08,NE,51,1.0,6.0,55,0.00,,OVC055,0.00,VWS V12.07,2013-08-13 19:23:00,
2013-08-13 14:24:00,60.7,44.9,30.08,NE,51,1.0,1.0,56,0.00,,OVC055,0.00,VWS V12.07,2013-08-13 19:24:00,
2013-08-13 14:25:00,60.7,45.8,30.08,NE,51,0.0,1.0,58,0.00,,OVC055,0.00,VWS V12.07,2013-08-13 19:25:00,
2013-08-13 14:27:00,60.9,46.0,30.08,NE,51,0.0,1.0,58,0.00,,OVC055,0.00,VWS V12.07,2013-08-13 19:27:00,
2013-08-13 14:28:00,61.2,45.4,30.09,NE,51,0.0,3.0,56,0.00,,OVC055,0.00,VWS V12.07,2013-08-13 19:28:00,
2013-08-13 14:29:00,61.2,45.9,30.09,NE,51,1.0,3.0,57,0.00,,OVC055,0.00,VWS V12.07,2013-08-13 19:29:00,
2013-08-13 14:30:00,61.2,45.9,30.09,NE,51,0.0,3.0,57,0.00,,OVC055,0.00,VWS V12.07,2013-08-13 19:30:00,
2013-08-13 14:32:00,61.2,44.9,30.09,NNE,31,1.0,5.0,55,0.00,,OVC055,0.00,VWS V12.07,2013-08-13 19:32:00,
2013-08-13 14:33:00,61.0,44.7,30.09,NNE,31,0.0,5.0,55,0.00,,OVC055,0.00,VWS V12.07,2013-08-13 19:33:00,
2013-08-13 14:35:00,61.0,45.2,30.09,ENE,74,0.0,3.0,56,0.00,,OVC055,0.00,VWS V12.07,2013-08-13 19:35:00,
2013-08-13 14:36:00,60.9,45.6,30.09,ENE,74,2.0,3.0,57,0.00,,OVC055,0.00,VWS V12.07,2013-08-13 19:36:00,
2013-08-13 14:37:00,60.9,46.0,30.09,NE,55,0.0,3.0,58,0.00,,OVC055,0.00,VWS V12.07,2013-08-13 19:37:00,
2013-08-13 14:39:00,60.5,45.7,30.09,NE,55,0.0,3.0,58,0.00,,OVC055,0.00,VWS V12.07,2013-08-13 19:39:00,
2013-08-13 14:40:00,60.5,45.7,30.09,NE,52,0.0,3.0,58,0.00,,OVC055,0.00,VWS V12.07,2013-08-13 19:40:00,
2013-08-13 14:41:00,60.5,46.1,30.09,NE,52,0.0,3.0,59,0.00,,OVC055,0.00,VWS V12.07,2013-08-13 19:41:00,
2013-08-13 14:42:00,60.2,46.3,30.09,NE,51,0.0,3.0,60,0.00,,OVC055,0.00,VWS V12.07,2013-08-13 19:42:00,
2013-08-13 14:44:00,60.5,46.1,30.09,NE,52,0.0,1.0,59,0.00,,OVC055,0.00,VWS V12.07,2013-08-13 19:44:00,
2013-08-13 14:45:00,60.7,46.3,30.09,NE,52,0.0,1.0,59,0.00,,OVC055,0.00,VWS V12.07,2013-08-13 19:45:00,
2013-08-13 14:46:00,60.9,46.5,30.09,NE,52,1.0,2.0,59,0.00,,OVC055,0.00,VWS V12.07,2013-08-13 19:46:00,
2013-08-13 14:48:00,61.3,46.9,30.09,NE,55,0.0,8.0,59,0.00,,OVC055,0.00,VWS V12.07,2013-08-13 19:48:00,
2013-08-13 14:50:00,61.8,46.4,30.09,NNE,30,2.0,8.0,57,0.00,,OVC055,0.00,VWS V12.07,2013-08-13 19:50:00,
2013-08-13 14:51:00,62.0,46.6,30.09,NNE,30,1.0,8.0,57,0.00,,OVC055,0.00,VWS V12.07,2013-08-13 19:51:00,
2013-08-13 14:52:00,62.1,46.2,30.09,NNE,27,3.0,8.0,56,0.00,,OVC055,0.00,VWS V12.07,2013-08-13 19:52:00,
2013-08-13 14:53:00,62.1,45.8,30.09,NE,47,0.0,8.0,55,0.00,,OVC055,0.00,VWS V12.07,2013-08-13 19:53:00,
2013-08-13 14:55:00,62.1,45.3,30.09,NE,40,0.0,3.0,54,0.00,,OVC055,0.00,VWS V12.07,2013-08-13 19:55:00,
2013-08-13 14:56:00,62.1,45.3,30.09,NNE,27,1.0,3.0,54,0.00,,OVC055,0.00,VWS V12.07,2013-08-13 19:56:00,
2013-08-13 14:57:00,62.0,45.2,30.08,NNW,333,0.0,4.0,54,0.00,,OVC055,0.00,VWS V12.07,2013-08-13 19:57:00,
2013-08-13 14:58:00,61.8,45.5,30.08,NNW,333,0.0,4.0,55,0.00,,OVC055,0.00,VWS V12.07,2013-08-13 19:58:00,
2013-08-13 15:01:00,61.6,46.2,30.08,NNW,333,0.0,4.0,57,0.00,,OVC055,0.00,VWS V12.07,2013-08-13 20:01:00,
2013-08-13 15:03:00,61.5,45.7,30.08,NNE,25,1.0,4.0,56,0.00,,OVC055,0.00,VWS V12.07,2013-08-13 20:03:00,
2013-08-13 15:06:00,61.0,47.5,30.08,NNW,329,0.0,1.0,61,0.00,,OVC055,0.00,VWS V12.07,2013-08-13 20:06:00,
2013-08-13 15:08:00,60.7,45.4,30.08,North,2,2.0,4.0,57,0.00,,OVC055,0.00,VWS V12.07,2013-08-13 20:08:00,
2013-08-13 15:09:00,60.5,46.1,30.08,North,2,0.0,4.0,59,0.00,,OVC055,0.00,VWS V12.07,2013-08-13 20:09:00,
2013-08-13 15:11:00,60.4,46.9,30.08,North,2,0.0,4.0,61,0.00,,OVC055,0.00,VWS V12.07,2013-08-13 20:11:00,
2013-08-13 15:12:00,60.4,46.9,30.08,North,2,0.0,4.0,61,0.00,,OVC055,0.00,VWS V12.07,2013-08-13 20:12:00,
2013-08-13 15:14:00,60.2,45.8,30.09,NNE,17,0.0,2.0,59,0.00,,OVC055,0.00,VWS V12.07,2013-08-13 20:14:00,
2013-08-13 15:15:00,60.2,45.8,30.09,NNE,16,0.0,2.0,59,0.00,,OVC055,0.00,VWS V12.07,2013-08-13 20:15:00,
2013-08-13 15:16:00,60.2,46.3,30.09,NNE,16,0.0,2.0,60,0.00,,OVC055,0.00,VWS V12.07,2013-08-13 20:16:00,
2013-08-13 15:17:00,60.4,46.0,30.09,NNE,16,0.0,2.0,59,0.00,,OVC055,0.00,VWS V12.07,2013-08-13 20:17:00,
2013-08-13 15:19:00,60.7,46.3,30.09,NNE,16,0.0,2.0,59,0.00,,OVC055,0.00,VWS V12.07,2013-08-13 20:19:00,
2013-08-13 15:21:00,60.9,46.0,30.09,ESE,111,0.0,2.0,58,0.00,,OVC055,0.00,VWS V12.07,2013-08-13 20:21:00,
2013-08-13 15:22:00,60.9,45.1,30.09,SSE,165,2.0,2.0,56,0.00,,OVC055,0.00,VWS V12.07,2013-08-13 20:22:00,
2013-08-13 15:23:00,61.2,44.4,30.09,East,82,2.0,3.0,54,0.00,,OVC055,0.00,VWS V12.07,2013-08-13 20:23:00,
2013-08-13 15:24:00,61.3,45.5,30.09,East,82,1.0,2.0,56,0.00,,OVC055,0.00,VWS V12.07,2013-08-13 20:24:00,
2013-08-13 15:26:00,61.6,45.3,30.09,SSW,200,0.0,3.0,55,0.00,,OVC055,0.00,VWS V12.07,2013-08-13 20:26:00,
2013-08-13 15:27:00,61.8,44.0,30.08,NE,39,0.0,5.0,52,0.00,,OVC055,0.00,VWS V12.07,2013-08-13 20:27:00,
2013-08-13 15:28:00,61.8,45.0,30.08,NE,39,0.0,5.0,54,0.00,,OVC055,0.00,VWS V12.07,2013-08-13 20:28:00,
2013-08-13 15:30:00,61.8,45.5,30.08,NE,39,0.0,5.0,55,0.00,,OVC055,0.00,VWS V12.07,2013-08-13 20:30:00,
2013-08-13 15:31:00,62.0,45.7,30.08,NE,38,2.0,5.0,55,0.00,,OVC055,0.00,VWS V12.07,2013-08-13 20:31:00,
2013-08-13 15:33:00,61.8,44.5,30.08,ENE,58,0.0,5.0,53,0.00,,OVC055,0.00,VWS V12.07,2013-08-13 20:33:00,
2013-08-13 15:35:00,61.5,45.7,30.08,ENE,58,0.0,2.0,56,0.00,,OVC055,0.00,VWS V12.07,2013-08-13 20:35:00,
2013-08-13 15:36:00,61.3,45.0,30.08,ENE,58,0.0,2.0,55,0.00,,OVC055,0.00,VWS V12.07,2013-08-13 20:36:00,
2013-08-13 15:38:00,61.3,45.5,30.08,ENE,58,0.0,2.0,56,0.00,,OVC055,0.00,VWS V12.07,2013-08-13 20:38:00,
2013-08-13 15:39:00,61.2,45.9,30.08,ENE,58,0.0,2.0,57,0.00,,OVC055,0.00,VWS V12.07,2013-08-13 20:39:00,
2013-08-13 15:40:00,61.0,45.7,30.08,ENE,58,0.0,2.0,57,0.00,,OVC055,0.00,VWS V12.07,2013-08-13 20:40:00,
2013-08-13 15:42:00,60.9,45.1,30.08,ENE,58,0.0,2.0,56,0.00,,OVC055,0.00,VWS V12.07,2013-08-13 20:42:00,
2013-08-13 15:43:00,60.9,45.6,30.09,ENE,58,0.0,2.0,57,0.00,,OVC055,0.00,VWS V12.07,2013-08-13 20:43:00,
2013-08-13 15:44:00,60.5,43.8,30.09,ENE,58,0.0,0.0,54,0.00,,OVC055,0.00,VWS V12.07,2013-08-13 20:44:00,
2013-08-13 15:46:00,60.5,45.2,30.09,ENE,58,0.0,0.0,57,0.00,,OVC055,0.00,VWS V12.07,2013-08-13 20:46:00,
2013-08-13 15:47:00,60.5,45.2,30.09,ENE,58,0.0,0.0,57,0.00,,OVC055,0.00,VWS V12.07,2013-08-13 20:47:00,
2013-08-13 15:48:00,60.5,43.8,30.09,ENE,58,0.0,1.0,54,0.00,,OVC055,0.00,VWS V12.07,2013-08-13 20:48:00,
2013-08-13 15:49:00,60.5,43.8,30.09,ENE,58,0.0,2.0,54,0.00,,OVC055,0.00,VWS V12.07,2013-08-13 20:49:00,
2013-08-13 15:50:00,60.5,44.7,30.09,ENE,58,0.0,2.0,56,0.00,,OVC055,0.00,VWS V12.07,2013-08-13 20:50:00,
2013-08-13 15:51:00,60.5,43.8,30.09,NNE,24,0.0,3.0,54,0.00,,OVC055,0.00,VWS V12.07,2013-08-13 20:51:00,
2013-08-13 15:53:00,60.5,45.2,30.09,NNE,24,0.0,3.0,57,0.00,,OVC055,0.00,VWS V12.07,2013-08-13 20:53:00,
2013-08-13 15:55:00,60.7,44.9,30.09,NE,37,1.0,3.0,56,0.00,,OVC055,0.00,VWS V12.07,2013-08-13 20:55:00,
2013-08-13 15:56:00,60.7,44.9,30.09,NE,37,1.0,3.0,56,0.00,,OVC055,0.00,VWS V12.07,2013-08-13 20:56:00,
2013-08-13 15:58:00,60.7,44.5,30.08,NE,37,1.0,3.0,55,0.00,,OVC055,0.00,VWS V12.07,2013-08-13 20:58:00,
2013-08-13 16:01:00,61.0,44.7,30.08,NE,38,2.0,3.0,55,0.00,,OVC055,0.00,VWS V12.07,2013-08-13 21:01:00,
2013-08-13 16:03:00,61.3,45.5,30.08,North,1,1.0,7.0,56,0.00,,OVC055,0.00,VWS V12.07,2013-08-13 21:03:00,
2013-08-13 16:04:00,61.3,44.5,30.08,NNE,25,0.0,1.0,54,0.00,,OVC055,0.00,VWS V12.07,2013-08-13 21:04:00,
2013-08-13 16:06:00,61.5,45.7,30.08,North,0,1.0,3.0,56,0.00,,OVC055,0.00,VWS V12.07,2013-08-13 21:06:00,
2013-08-13 16:07:00,61.3,44.5,30.08,North,0,0.0,3.0,54,0.00,,OVC055,0.00,VWS V12.07,2013-08-13 21:07:00,
2013-08-13 16:08:00,61.3,44.5,30.08,North,0,0.0,3.0,54,0.00,,OVC055,0.00,VWS V12.07,2013-08-13 21:08:00,
2013-08-13 16:09:00,61.3,45.0,30.08,North,0,0.0,3.0,55,0.00,,OVC055,0.00,VWS V12.07,2013-08-13 21:09:00,
2013-08-13 16:11:00,61.2,45.4,30.08,North,0,0.0,3.0,56,0.00,,OVC055,0.00,VWS V12.07,2013-08-13 21:11:00,
2013-08-13 16:12:00,61.2,45.4,30.08,North,0,0.0,3.0,56,0.00,,OVC055,0.00,VWS V12.07,2013-08-13 21:12:00,
2013-08-13 16:13:00,61.0,44.7,30.09,North,353,0.0,3.0,55,0.00,,OVC055,0.00,VWS V12.07,2013-08-13 21:13:00,
2013-08-13 16:14:00,61.0,45.2,30.09,North,353,0.0,1.0,56,0.00,,OVC055,0.00,VWS V12.07,2013-08-13 21:14:00,
2013-08-13 16:16:00,60.9,44.6,30.09,NE,53,3.0,3.0,55,0.00,,OVC055,0.00,VWS V12.07,2013-08-13 21:16:00,
2013-08-13 16:17:00,60.9,44.2,30.09,WNW,298,2.0,4.0,54,0.00,,OVC055,0.00,VWS V12.07,2013-08-13 21:17:00,
2013-08-13 16:18:00,60.7,45.4,30.09,WNW,298,0.0,4.0,57,0.00,,OVC055,0.00,VWS V12.07,2013-08-13 21:18:00,
2013-08-13 16:19:00,60.7,45.4,30.09,WNW,298,0.0,4.0,57,0.00,,OVC055,0.00,VWS V12.07,2013-08-13 21:19:00,
2013-08-13 16:20:00,60.7,45.4,30.09,WNW,298,0.0,4.0,57,0.00,,OVC055,0.00,VWS V12.07,2013-08-13 21:20:00,
2013-08-13 16:21:00,60.7,45.4,30.09,WNW,298,0.0,4.0,57,0.00,,OVC055,0.00,VWS V12.07,2013-08-13 21:21:00,
2013-08-13 16:22:00,60.7,45.4,30.09,WNW,298,0.0,4.0,57,0.00,,OVC055,0.00,VWS V12.07,2013-08-13 21:22:00,
2013-08-13 16:24:00,60.5,45.2,30.09,WNW,298,0.0,4.0,57,0.00,,OVC055,0.00,VWS V12.07,2013-08-13 21:24:00,
2013-08-13 16:25:00,60.5,45.2,30.09,East,79,0.0,1.0,57,0.00,,OVC055,0.00,VWS V12.07,2013-08-13 21:25:00,
2013-08-13 16:27:00,60.5,45.7,30.09,East,79,0.0,1.0,58,0.00,,OVC055,0.00,VWS V12.07,2013-08-13 21:27:00,
2013-08-13 16:28:00,60.4,45.1,30.09,East,86,0.0,2.0,57,0.00,,OVC055,0.00,VWS V12.07,2013-08-13 21:28:00,
2013-08-13 16:29:00,60.4,45.1,30.09,East,86,0.0,2.0,57,0.00,,OVC055,0.00,VWS V12.07,2013-08-13 21:29:00,
2013-08-13 16:31:00,60.4,46.0,30.09,East,86,0.0,2.0,59,0.00,,OVC055,0.00,VWS V12.07,2013-08-13 21:31:00,
2013-08-13 16:32:00,60.4,46.0,30.09,East,86,0.0,2.0,59,0.00,,OVC060,0.00,VWS V12.07,2013-08-13 21:32:00,
2013-08-13 16:34:00,60.4,46.5,30.09,East,86,0.0,2.0,60,0.00,,OVC060,0.00,VWS V12.07,2013-08-13 21:34:00,
2013-08-13 16:35:00,60.4,46.9,30.09,East,86,0.0,0.0,61,0.00,,OVC060,0.00,VWS V12.07,2013-08-13 21:35:00,
2013-08-13 16:37:00,60.4,45.1,30.09,NE,40,0.0,4.0,57,0.00,,OVC060,0.00,VWS V12.07,2013-08-13 21:37:00,
2013-08-13 16:38:00,60.4,45.6,30.09,NE,40,0.0,4.0,58,0.00,,OVC060,0.00,VWS V12.07,2013-08-13 21:38:00,
2013-08-13 16:39:00,60.5,45.7,30.09,NE,39,1.0,4.0,58,0.00,,OVC060,0.00,VWS V12.07,2013-08-13 21:39:00,
2013-08-13 16:41:00,60.5,47.0,30.09,NE,39,0.0,4.0,61,0.00,,OVC060,0.00,VWS V12.07,2013-08-13 21:41:00,
2013-08-13 16:42:00,60.5,45.2,30.08,NE,39,0.0,4.0,57,0.00,,OVC060,0.00,VWS V12.07,2013-08-13 21:42:00,
2013-08-13 16:43:00,60.5,45.2,30.08,NE,39,0.0,4.0,57,0.00,,OVC060,0.00,VWS V12.07,2013-08-13 21:43:00,
2013-08-13 16:45:00,60.5,44.7,30.08,NNE,27,0.0,1.0,56,0.00,,OVC060,0.00,VWS V12.07,2013-08-13 21:45:00,
2013-08-13 16:46:00,60.5,45.2,30.08,NNE,27,0.0,1.0,57,0.00,,OVC060,0.00,VWS V12.07,2013-08-13 21:46:00,
2013-08-13 16:47:00,60.5,44.7,30.08,NNE,17,0.0,4.0,56,0.00,,OVC060,0.00,VWS V12.07,2013-08-13 21:47:00,
2013-08-13 16:50:00,60.5,45.2,30.08,WNW,297,0.0,4.0,57,0.00,,OVC060,0.00,VWS V12.07,2013-08-13 21:50:00,
2013-08-13 16:51:00,60.4,45.1,30.08,North,356,0.0,7.0,57,0.00,,OVC060,0.00,VWS V12.07,2013-08-13 21:51:00,
2013-08-13 16:52:00,60.4,44.7,30.08,North,356,0.0,7.0,56,0.00,,OVC060,0.00,VWS V12.07,2013-08-13 21:52:00,
2013-08-13 16:55:00,60.2,44.9,30.08,North,356,0.0,0.0,57,0.00,,OVC060,0.00,VWS V12.07,2013-08-13 21:55:00,
2013-08-13 16:56:00,60.1,44.8,30.08,North,356,0.0,0.0,57,0.00,,OVC060,0.00,VWS V12.07,2013-08-13 21:56:00,
2013-08-13 16:58:00,60.1,44.8,30.09,North,356,0.0,1.0,57,0.00,,OVC060,0.00,VWS V12.07,2013-08-13 21:58:00,
2013-08-13 17:00:00,59.9,46.0,30.09,North,356,0.0,1.0,60,0.00,,OVC060,0.00,VWS V12.07,2013-08-13 22:00:00,
2013-08-13 17:01:00,59.9,46.0,30.09,North,356,0.0,1.0,60,0.00,,OVC060,0.00,VWS V12.07,2013-08-13 22:01:00,
2013-08-13 17:03:00,59.8,45.9,30.09,North,356,0.0,1.0,60,0.00,,OVC060,0.00,VWS V12.07,2013-08-13 22:03:00,
2013-08-13 17:05:00,59.6,46.2,30.09,North,356,0.0,0.0,61,0.00,,OVC050,0.00,VWS V12.07,2013-08-13 22:05:00,
2013-08-13 17:06:00,59.6,46.2,30.09,North,356,0.0,1.0,61,0.00,,OVC050,0.00,VWS V12.07,2013-08-13 22:06:00,
2013-08-13 17:10:00,59.5,46.1,30.09,North,356,0.0,1.0,61,0.00,,OVC060,0.00,VWS V12.07,2013-08-13 22:10:00,
2013-08-13 17:11:00,59.3,45.9,30.09,NNE,29,1.0,2.0,61,0.00,,OVC060,0.00,VWS V12.07,2013-08-13 22:11:00,
2013-08-13 17:15:00,59.3,45.0,30.09,NNW,342,0.0,5.0,59,0.00,,OVC060,0.00,VWS V12.07,2013-08-13 22:15:00,
2013-08-13 17:16:00,59.3,45.0,30.09,NNW,342,0.0,5.0,59,0.00,,OVC060,0.00,VWS V12.07,2013-08-13 22:16:00,
2013-08-13 17:17:00,59.3,45.4,30.09,NNW,342,0.0,5.0,60,0.00,,OVC060,0.00,VWS V12.07,2013-08-13 22:17:00,
2013-08-13 17:20:00,59.3,45.0,30.09,NNE,28,1.0,5.0,59,0.00,,OVC060,0.00,VWS V12.07,2013-08-13 22:20:00,
2013-08-13 17:21:00,59.3,45.0,30.09,NE,37,0.0,5.0,59,0.00,,OVC060,0.00,VWS V12.07,2013-08-13 22:21:00,
2013-08-13 17:23:00,59.5,45.2,30.09,NE,37,1.0,5.0,59,0.00,,OVC060,0.00,VWS V12.07,2013-08-13 22:23:00,
2013-08-13 17:24:00,59.5,45.2,30.09,NE,37,0.0,5.0,59,0.00,,OVC060,0.00,VWS V12.07,2013-08-13 22:24:00,
2013-08-13 17:25:00,59.5,45.6,30.09,NE,37,0.0,1.0,60,0.00,,OVC060,0.00,VWS V12.07,2013-08-13 22:25:00,
2013-08-13 17:26:00,59.5,46.1,30.09,NE,37,0.0,1.0,61,0.00,,OVC060,0.00,VWS V12.07,2013-08-13 22:26:00,
2013-08-13 17:28:00,59.6,44.8,30.08,NE,51,0.0,4.0,58,0.00,,OVC060,0.00,VWS V12.07,2013-08-13 22:28:00,
2013-08-13 17:29:00,59.6,44.8,30.08,NE,51,3.0,4.0,58,0.00,,OVC060,0.00,VWS V12.07,2013-08-13 22:29:00,
2013-08-13 17:30:00,59.6,46.2,30.08,NE,39,0.0,4.0,61,0.00,,OVC060,0.00,VWS V12.07,2013-08-13 22:30:00,
2013-08-13 17:31:00,59.6,45.7,30.08,NE,39,0.0,4.0,60,0.00,,OVC060,0.00,VWS V12.07,2013-08-13 22:31:00,
2013-08-13 17:33:00,59.6,45.3,30.08,NNE,24,1.0,4.0,59,0.00,,BKN060,0.00,VWS V12.07,2013-08-13 22:33:00,
2013-08-13 17:34:00,59.6,44.4,30.08,North,358,0.0,6.0,57,0.00,,BKN060,0.00,VWS V12.07,2013-08-13 22:34:00,
2013-08-13 17:36:00,59.6,44.4,30.08,North,358,0.0,6.0,57,0.00,,BKN060,0.00,VWS V12.07,2013-08-13 22:36:00,
2013-08-13 17:39:00,59.6,44.8,30.08,ENE,59,0.0,6.0,58,0.00,,BKN060,0.00,VWS V12.07,2013-08-13 22:39:00,
2013-08-13 17:40:00,59.5,44.3,30.08,ENE,59,0.0,6.0,57,0.00,,BKN060,0.00,VWS V12.07,2013-08-13 22:40:00,
2013-08-13 17:41:00,59.5,44.3,30.08,ENE,59,0.0,6.0,57,0.00,,BKN060,0.00,VWS V12.07,2013-08-13 22:41:00,
2013-08-13 17:42:00,59.5,44.3,30.08,ENE,59,0.0,6.0,57,0.00,,BKN060,0.00,VWS V12.07,2013-08-13 22:42:00,
2013-08-13 17:44:00,59.5,44.7,30.08,ENE,59,0.0,0.0,58,0.00,,BKN060,0.00,VWS V12.07,2013-08-13 22:44:00,
2013-08-13 17:46:00,59.5,45.2,30.08,ENE,59,0.0,0.0,59,0.00,,BKN060,0.00,VWS V12.07,2013-08-13 22:46:00,
2013-08-13 17:47:00,59.3,45.0,30.08,ENE,59,0.0,1.0,59,0.00,,BKN060,0.00,VWS V12.07,2013-08-13 22:47:00,
2013-08-13 17:48:00,59.3,44.5,30.08,ENE,59,1.0,2.0,58,0.00,,BKN060,0.00,VWS V12.07,2013-08-13 22:48:00,
2013-08-13 17:50:00,59.3,44.5,30.08,South,181,0.0,2.0,58,0.00,,BKN060,0.00,VWS V12.07,2013-08-13 22:50:00,
2013-08-13 17:51:00,59.3,44.1,30.08,North,6,0.0,2.0,57,0.00,,BKN060,0.00,VWS V12.07,2013-08-13 22:51:00,
2013-08-13 17:52:00,59.3,45.0,30.08,North,6,0.0,2.0,59,0.00,,BKN060,0.00,VWS V12.07,2013-08-13 22:52:00,
2013-08-13 17:53:00,59.2,44.9,30.08,North,6,0.0,2.0,59,0.00,,BKN060,0.00,VWS V12.07,2013-08-13 22:53:00,
2013-08-13 17:55:00,59.2,44.5,30.08,North,6,0.0,1.0,58,0.00,,BKN060,0.00,VWS V12.07,2013-08-13 22:55:00,
2013-08-13 17:56:00,59.2,44.5,30.08,North,0,1.0,2.0,58,0.00,,BKN060,0.00,VWS V12.07,2013-08-13 22:56:00,
2013-08-13 17:57:00,59.0,44.3,30.08,North,0,0.0,2.0,58,0.00,,BKN060,0.00,VWS V12.07,2013-08-13 22:57:00,
2013-08-13 17:58:00,59.0,43.8,30.08,North,0,0.0,2.0,57,0.00,,BKN060,0.00,VWS V12.07,2013-08-13 22:58:00,
2013-08-13 18:00:00,58.9,44.2,30.08,North,0,0.0,2.0,58,0.00,,BKN060,0.00,VWS V12.07,2013-08-13 23:00:00,
2013-08-13 18:01:00,58.9,44.6,30.08,North,0,0.0,2.0,59,0.00,,BKN060,0.00,VWS V12.07,2013-08-13 23:01:00,
2013-08-13 18:02:00,58.9,44.6,30.08,North,0,0.0,2.0,59,0.00,,BKN060,0.00,VWS V12.07,2013-08-13 23:02:00,
2013-08-13 18:03:00,58.7,44.4,30.08,NW,306,3.0,3.0,59,0.00,,BKN060,0.00,VWS V12.07,2013-08-13 23:03:00,
2013-08-13 18:07:00,58.6,44.3,30.08,NW,306,0.0,3.0,59,0.00,,BKN060,0.00,VWS V12.07,2013-08-13 23:07:00,
2013-08-13 18:08:00,58.6,44.3,30.08,NW,309,0.0,3.0,59,0.00,,BKN060,0.00,VWS V12.07,2013-08-13 23:08:00,
2013-08-13 18:09:00,58.4,44.1,30.08,NW,309,0.0,3.0,59,0.00,,BKN060,0.00,VWS V12.07,2013-08-13 23:09:00,
2013-08-13 18:12:00,58.3,44.9,30.08,NW,309,0.0,3.0,61,0.00,,BKN060,0.00,VWS V12.07,2013-08-13 23:12:00,
2013-08-13 18:13:00,58.3,44.0,30.09,NNW,337,1.0,3.0,59,0.00,,BKN060,0.00,VWS V12.07,2013-08-13 23:13:00,
2013-08-13 18:14:00,58.3,43.6,30.09,NNW,339,0.0,3.0,58,0.00,,BKN060,0.00,VWS V12.07,2013-08-13 23:14:00,
2013-08-13 18:17:00,58.1,44.3,30.09,NNW,339,0.0,2.0,60,0.00,,BKN060,0.00,VWS V12.07,2013-08-13 23:17:00,
2013-08-13 18:18:00,58.1,44.3,30.09,NW,314,0.0,2.0,60,0.00,,BKN060,0.00,VWS V12.07,2013-08-13 23:18:00,
2013-08-13 18:19:00,58.1,43.9,30.09,NW,314,0.0,2.0,59,0.00,,BKN060,0.00,VWS V12.07,2013-08-13 23:19:00,
2013-08-13 18:22:00,58.1,43.9,30.09,ENE,63,0.0,2.0,59,0.00,,BKN060,0.00,VWS V12.07,2013-08-13 23:22:00,
2013-08-13 18:23:00,58.1,43.9,30.09,ENE,63,0.0,2.0,59,0.00,,BKN060,0.00,VWS V12.07,2013-08-13 23:23:00,
2013-08-13 18:24:00,58.1,43.4,30.09,ENE,63,2.0,2.0,58,0.00,,BKN060,0.00,VWS V12.07,2013-08-13 23:24:00,
2013-08-13 18:26:00,58.1,43.9,30.09,ENE,63,0.0,2.0,59,0.00,,BKN060,0.00,VWS V12.07,2013-08-13 23:26:00,
2013-08-13 18:27:00,58.1,44.3,30.09,ENE,63,0.0,2.0,60,0.00,,BKN060,0.00,VWS V12.07,2013-08-13 23:27:00,
2013-08-13 18:28:00,58.1,44.3,30.09,ENE,63,0.0,2.0,60,0.00,,BKN060,0.00,VWS V12.07,2013-08-13 23:28:00,
2013-08-13 18:29:00,58.1,44.3,30.09,NNW,343,1.0,3.0,60,0.00,,BKN060,0.00,VWS V12.07,2013-08-13 23:29:00,
2013-08-13 18:32:00,58.1,44.3,30.09,NE,54,0.0,3.0,60,0.00,,BKN060,0.00,VWS V12.07,2013-08-13 23:32:00,
2013-08-13 18:33:00,58.1,44.7,30.09,NE,54,0.0,3.0,61,0.00,,BKN060,0.00,VWS V12.07,2013-08-13 23:33:00,
2013-08-13 18:34:00,58.1,43.9,30.09,NE,54,0.0,0.0,59,0.00,,BKN060,0.00,VWS V12.07,2013-08-13 23:34:00,
2013-08-13 18:35:00,58.1,44.3,30.09,NE,54,0.0,0.0,60,0.00,,BKN060,0.00,VWS V12.07,2013-08-13 23:35:00,
2013-08-13 18:37:00,58.0,43.8,30.09,NNE,30,0.0,3.0,59,0.00,,BKN060,0.00,VWS V12.07,2013-08-13 23:37:00,
2013-08-13 18:38:00,58.0,42.9,30.09,NE,56,0.0,3.0,57,0.00,,BKN060,0.00,VWS V12.07,2013-08-13 23:38:00,
2013-08-13 18:40:00,58.0,43.8,30.09,NE,56,0.0,3.0,59,0.00,,BKN060,0.00,VWS V12.07,2013-08-13 23:40:00,
2013-08-13 18:42:00,58.0,43.3,30.09,North,4,0.0,3.0,58,0.00,,BKN060,0.00,VWS V12.07,2013-08-13 23:42:00,
2013-08-13 18:43:00,58.0,43.8,30.09,North,4,0.0,3.0,59,0.00,,BKN060,0.00,VWS V12.07,2013-08-13 23:43:00,
2013-08-13 18:45:00,57.8,43.6,30.09,NE,37,1.0,2.0,59,0.00,,BKN060,0.00,VWS V12.07,2013-08-13 23:45:00,
2013-08-13 18:48:00,57.8,43.1,30.09,NE,36,0.0,4.0,58,0.00,,BKN060,0.00,VWS V12.07,2013-08-13 23:48:00,
2013-08-13 18:49:00,57.8,42.7,30.09,NE,36,0.0,4.0,57,0.00,,BKN060,0.00,VWS V12.07,2013-08-13 23:49:00,
2013-08-13 18:50:00,57.6,42.5,30.09,NE,36,0.0,4.0,57,0.00,,BKN060,0.00,VWS V12.07,2013-08-13 23:50:00,
2013-08-13 18:53:00,57.6,43.0,30.09,NE,36,0.0,4.0,58,0.00,,BKN060,0.00,VWS V12.07,2013-08-13 23:53:00,
2013-08-13 18:54:00,57.6,43.0,30.09,NE,36,0.0,0.0,58,0.00,,BKN060,0.00,VWS V12.07,2013-08-13 23:54:00,
2013-08-13 18:55:00,57.6,43.0,30.09,NE,36,0.0,0.0,58,0.00,,BKN060,0.00,VWS V12.07,2013-08-13 23:55:00,
2013-08-13 18:58:00,57.5,44.2,30.08,NE,36,0.0,1.0,61,0.00,,BKN060,0.00,VWS V12.07,2013-08-13 23:58:00,
2013-08-13 18:59:00,57.5,43.3,30.08,NE,36,0.0,1.0,59,0.00,,BKN060,0.00,VWS V12.07,2013-08-13 23:59:00,
2013-08-13 19:01:00,57.3,43.1,30.08,NE,47,0.0,4.0,59,0.00,,BKN060,0.00,VWS V12.07,2013-08-14 00:01:00,
2013-08-13 19:03:00,57.3,44.0,30.08,North,356,0.0,4.0,61,0.00,,BKN060,0.00,VWS V12.07,2013-08-14 00:03:00,
2013-08-13 19:04:00,57.2,44.7,30.08,North,356,0.0,0.0,63,0.00,,CLR,0.00,VWS V12.07,2013-08-14 00:04:00,
2013-08-13 19:06:00,57.2,44.7,30.08,North,356,0.0,0.0,63,0.00,,CLR,0.00,VWS V12.07,2013-08-14 00:06:00,
2013-08-13 19:07:00,57.0,44.5,30.08,North,356,2.0,2.0,63,0.00,,CLR,0.00,VWS V12.07,2013-08-14 00:07:00,
2013-08-13 19:09:00,56.9,44.5,30.08,NNE,33,0.0,2.0,63,0.00,,CLR,0.00,VWS V12.07,2013-08-14 00:09:00,
2013-08-13 19:10:00,56.9,44.9,30.08,NNE,33,0.0,2.0,64,0.00,,CLR,0.00,VWS V12.07,2013-08-14 00:10:00,
2013-08-13 19:11:00,56.7,44.7,30.08,NNE,33,0.0,2.0,64,0.00,,CLR,0.00,VWS V12.07,2013-08-14 00:11:00,
2013-08-13 19:12:00,56.7,43.4,30.08,North,6,0.0,4.0,61,0.00,,CLR,0.00,VWS V12.07,2013-08-14 00:12:00,
2013-08-13 19:14:00,56.6,45.0,30.09,North,6,0.0,0.0,65,0.00,,CLR,0.00,VWS V12.07,2013-08-14 00:14:00,
2013-08-13 19:15:00,56.5,44.9,30.09,North,6,0.0,0.0,65,0.00,,CLR,0.00,VWS V12.07,2013-08-14 00:15:00,
2013-08-13 19:16:00,56.5,44.9,30.09,North,6,0.0,0.0,65,0.00,,CLR,0.00,VWS V12.07,2013-08-14 00:16:00,
2013-08-13 19:17:00,56.5,44.5,30.09,ENE,64,0.0,0.0,64,0.00,,CLR,0.00,VWS V12.07,2013-08-14 00:17:00,
2013-08-13 19:20:00,56.2,44.6,30.09,ENE,64,0.0,0.0,65,0.00,,CLR,0.00,VWS V12.07,2013-08-14 00:20:00,
2013-08-13 19:21:00,56.2,45.0,30.09,ENE,64,0.0,0.0,66,0.00,,CLR,0.00,VWS V12.07,2013-08-14 00:21:00,
2013-08-13 19:22:00,56.0,44.8,30.09,ENE,64,0.0,0.0,66,0.00,,CLR,0.00,VWS V12.07,2013-08-14 00:22:00,
2013-08-13 19:25:00,55.7,44.1,30.09,ENE,64,0.0,0.0,65,0.00,,CLR,0.00,VWS V12.07,2013-08-14 00:25:00,
2013-08-13 19:26:00,55.7,44.1,30.09,ENE,64,0.0,0.0,65,0.00,,CLR,0.00,VWS V12.07,2013-08-14 00:26:00,
2013-08-13 19:27:00,55.7,44.5,30.09,ENE,64,0.0,0.0,66,0.00,,CLR,0.00,VWS V12.07,2013-08-14 00:27:00,
2013-08-13 19:31:00,55.4,44.6,30.09,ENE,64,0.0,0.0,67,0.00,,CLR,0.00,VWS V12.07,2013-08-14 00:31:00,
2013-08-13 19:32:00,55.4,45.0,30.09,ENE,64,0.0,0.0,68,0.00,,CLR,0.00,VWS V12.07,2013-08-14 00:32:00,
2013-08-13 19:33:00,55.3,44.5,30.09,ENE,64,0.0,0.0,67,0.00,,CLR,0.00,VWS V12.07,2013-08-14 00:33:00,
2013-08-13 19:36:00,55.3,44.5,30.09,ENE,64,0.0,0.0,67,0.00,,CLR,0.00,VWS V12.07,2013-08-14 00:36:00,
2013-08-13 19:37:00,55.3,44.2,30.09,ENE,64,0.0,0.0,66,0.00,,CLR,0.00,VWS V12.07,2013-08-14 00:37:00,
2013-08-13 19:39:00,55.1,44.3,30.09,ENE,64,0.0,0.0,67,0.00,,CLR,0.00,VWS V12.07,2013-08-14 00:39:00,
2013-08-13 19:42:00,55.1,44.7,30.09,ENE,64,0.0,0.0,68,0.00,,CLR,0.00,VWS V12.07,2013-08-14 00:42:00,
2013-08-13 19:43:00,55.1,45.1,30.09,ENE,64,0.0,0.0,69,0.00,,CLR,0.00,VWS V12.07,2013-08-14 00:43:00,
2013-08-13 19:44:00,55.0,44.7,30.09,ENE,64,0.0,0.0,68,0.00,,CLR,0.00,VWS V12.07,2013-08-14 00:44:00,
2013-08-13 19:47:00,55.0,45.0,30.09,ENE,64,0.0,0.0,69,0.00,,CLR,0.00,VWS V12.07,2013-08-14 00:47:00,
2013-08-13 19:48:00,55.0,44.7,30.09,ENE,64,0.0,0.0,68,0.00,,CLR,0.00,VWS V12.07,2013-08-14 00:48:00,
2013-08-13 19:51:00,54.8,45.2,30.09,ENE,64,0.0,0.0,70,0.00,,CLR,0.00,VWS V12.07,2013-08-14 00:51:00,
2013-08-13 19:52:00,54.8,44.8,30.09,ENE,64,0.0,0.0,69,0.00,,CLR,0.00,VWS V12.07,2013-08-14 00:52:00,
2013-08-13 19:53:00,54.7,44.7,30.09,ENE,64,0.0,0.0,69,0.00,,CLR,0.00,VWS V12.07,2013-08-14 00:53:00,
2013-08-13 19:56:00,54.5,44.9,30.09,ENE,64,0.0,0.0,70,0.00,,CLR,0.00,VWS V12.07,2013-08-14 00:56:00,
2013-08-13 19:58:00,54.4,44.8,30.07,ENE,64,0.0,0.0,70,0.00,,CLR,0.00,VWS V12.07,2013-08-14 00:58:00,
2013-08-13 19:59:00,54.4,44.8,30.07,ENE,64,0.0,0.0,70,0.00,,CLR,0.00,VWS V12.07,2013-08-14 00:59:00,
2013-08-13 20:01:00,54.2,45.0,30.07,ENE,64,0.0,0.0,71,0.00,,CLR,0.00,VWS V12.07,2013-08-14 01:01:00,
2013-08-13 20:03:00,54.1,44.9,30.07,ENE,64,0.0,0.0,71,0.00,,CLR,0.00,VWS V12.07,2013-08-14 01:03:00,
2013-08-13 20:04:00,53.9,44.7,30.07,ENE,64,0.0,0.0,71,0.00,,CLR,0.00,VWS V12.07,2013-08-14 01:04:00,
2013-08-13 20:06:00,53.8,45.0,30.07,ENE,64,0.0,0.0,72,0.00,,CLR,0.00,VWS V12.07,2013-08-14 01:06:00,
2013-08-13 20:08:00,53.6,44.8,30.07,ENE,64,0.0,0.0,72,0.00,,CLR,0.00,VWS V12.07,2013-08-14 01:08:00,
2013-08-13 20:09:00,53.5,44.7,30.07,ENE,64,0.0,0.0,72,0.00,,CLR,0.00,VWS V12.07,2013-08-14 01:09:00,
2013-08-13 20:11:00,53.5,45.1,30.07,ENE,64,0.0,0.0,73,0.00,,CLR,0.00,VWS V12.07,2013-08-14 01:11:00,
2013-08-13 20:13:00,53.2,44.8,30.08,ENE,64,0.0,0.0,73,0.00,,CLR,0.00,VWS V12.07,2013-08-14 01:13:00,
2013-08-13 20:14:00,53.2,44.8,30.08,ENE,64,0.0,0.0,73,0.00,,CLR,0.00,VWS V12.07,2013-08-14 01:14:00,
2013-08-13 20:15:00,53.2,44.8,30.08,ENE,64,0.0,0.0,73,0.00,,CLR,0.00,VWS V12.07,2013-08-14 01:15:00,
2013-08-13 20:17:00,53.1,44.7,30.08,ENE,64,0.0,0.0,73,0.00,,CLR,0.00,VWS V12.07,2013-08-14 01:17:00,
2013-08-13 20:19:00,52.9,44.5,30.08,ENE,64,0.0,0.0,73,0.00,,CLR,0.00,VWS V12.07,2013-08-14 01:19:00,
2013-08-13 20:20:00,52.8,44.8,30.08,ENE,64,0.0,0.0,74,0.00,,CLR,0.00,VWS V12.07,2013-08-14 01:20:00,
2013-08-13 20:22:00,52.5,44.5,30.08,ENE,64,0.0,0.0,74,0.00,,CLR,0.00,VWS V12.07,2013-08-14 01:22:00,
2013-08-13 20:24:00,52.3,44.6,30.08,ENE,64,0.0,0.0,75,0.00,,CLR,0.00,VWS V12.07,2013-08-14 01:24:00,
2013-08-13 20:25:00,52.3,44.6,30.08,ENE,64,0.0,0.0,75,0.00,,CLR,0.00,VWS V12.07,2013-08-14 01:25:00,
2013-08-13 20:27:00,52.0,44.7,30.08,ENE,64,0.0,0.0,76,0.00,,CLR,0.00,VWS V12.07,2013-08-14 01:27:00,
2013-08-13 20:29:00,51.9,44.6,30.08,ENE,64,0.0,0.0,76,0.00,,CLR,0.00,VWS V12.07,2013-08-14 01:29:00,
2013-08-13 20:30:00,51.7,44.4,30.08,ENE,64,0.0,0.0,76,0.00,,CLR,0.00,VWS V12.07,2013-08-14 01:30:00,
2013-08-13 20:33:00,51.6,44.6,30.08,ENE,64,0.0,0.0,77,0.00,,CLR,0.00,VWS V12.07,2013-08-14 01:33:00,
2013-08-13 20:34:00,51.4,44.8,30.08,ENE,64,0.0,0.0,78,0.00,,CLR,0.00,VWS V12.07,2013-08-14 01:34:00,
2013-08-13 20:35:00,51.3,44.7,30.08,ENE,64,0.0,0.0,78,0.00,,CLR,0.00,VWS V12.07,2013-08-14 01:35:00,
2013-08-13 20:36:00,51.3,44.7,30.08,ENE,64,0.0,0.0,78,0.00,,CLR,0.00,VWS V12.07,2013-08-14 01:36:00,
2013-08-13 20:38:00,51.1,44.5,30.08,ENE,64,0.0,0.0,78,0.00,,CLR,0.00,VWS V12.07,2013-08-14 01:38:00,
2013-08-13 20:39:00,51.0,44.4,30.08,ENE,64,0.0,0.0,78,0.00,,CLR,0.00,VWS V12.07,2013-08-14 01:39:00,
2013-08-13 20:40:00,51.0,44.4,30.08,ENE,64,0.0,0.0,78,0.00,,CLR,0.00,VWS V12.07,2013-08-14 01:40:00,
2013-08-13 20:41:00,50.8,44.2,30.08,ENE,64,0.0,0.0,78,0.00,,CLR,0.00,VWS V12.07,2013-08-14 01:41:00,
2013-08-13 20:43:00,50.7,44.4,30.09,ENE,64,0.0,0.0,79,0.00,,CLR,0.00,VWS V12.07,2013-08-14 01:43:00,
2013-08-13 20:45:00,50.7,44.4,30.09,ENE,64,0.0,0.0,79,0.00,,CLR,0.00,VWS V12.07,2013-08-14 01:45:00,
2013-08-13 20:46:00,50.5,44.2,30.09,ENE,64,0.0,0.0,79,0.00,,CLR,0.00,VWS V12.07,2013-08-14 01:46:00,
2013-08-13 20:47:00,50.5,44.2,30.09,ENE,64,0.0,0.0,79,0.00,,CLR,0.00,VWS V12.07,2013-08-14 01:47:00,
2013-08-13 20:48:00,50.4,44.5,30.09,ENE,64,0.0,0.0,80,0.00,,CLR,0.00,VWS V12.07,2013-08-14 01:48:00,
2013-08-13 20:50:00,50.4,44.5,30.09,ENE,64,0.0,0.0,80,0.00,,CLR,0.00,VWS V12.07,2013-08-14 01:50:00,
2013-08-13 20:51:00,50.2,44.3,30.09,ENE,64,0.0,0.0,80,0.00,,CLR,0.00,VWS V12.07,2013-08-14 01:51:00,
2013-08-13 20:52:00,50.2,44.3,30.09,ENE,64,0.0,0.0,80,0.00,,CLR,0.00,VWS V12.07,2013-08-14 01:52:00,
2013-08-13 20:53:00,50.1,44.2,30.09,ENE,64,0.0,0.0,80,0.00,,CLR,0.00,VWS V12.07,2013-08-14 01:53:00,
2013-08-13 20:55:00,49.9,44.3,30.09,ENE,64,0.0,0.0,81,0.00,,CLR,0.00,VWS V12.07,2013-08-14 01:55:00,
2013-08-13 20:56:00,49.9,44.3,30.09,ENE,64,0.0,0.0,81,0.00,,CLR,0.00,VWS V12.07,2013-08-14 01:56:00,
2013-08-13 20:57:00,49.9,44.3,30.09,ENE,64,0.0,0.0,81,0.00,,CLR,0.00,VWS V12.07,2013-08-14 01:57:00,
2013-08-13 20:58:00,49.8,44.5,30.08,ENE,64,0.0,0.0,82,0.00,,CLR,0.00,VWS V12.07,2013-08-14 01:58:00,
2013-08-13 21:00:00,49.6,44.3,30.08,ENE,64,0.0,0.0,82,0.00,,CLR,0.00,VWS V12.07,2013-08-14 02:00:00,
2013-08-13 21:01:00,49.6,44.3,30.08,ENE,64,0.0,0.0,82,0.00,,CLR,0.00,VWS V12.07,2013-08-14 02:01:00,
2013-08-13 21:02:00,49.6,44.3,30.08,ENE,64,0.0,0.0,82,0.00,,CLR,0.00,VWS V12.07,2013-08-14 02:02:00,
2013-08-13 21:03:00,49.5,44.2,30.08,ENE,64,0.0,0.0,82,0.00,,CLR,0.00,VWS V12.07,2013-08-14 02:03:00,
2013-08-13 21:05:00,49.4,44.5,30.08,ENE,64,0.0,0.0,83,0.00,,CLR,0.00,VWS V12.07,2013-08-14 02:05:00,
2013-08-13 21:06:00,49.4,44.5,30.08,ENE,64,0.0,0.0,83,0.00,,CLR,0.00,VWS V12.07,2013-08-14 02:06:00,
2013-08-13 21:07:00,49.4,44.5,30.08,ENE,64,0.0,0.0,83,0.00,,CLR,0.00,VWS V12.07,2013-08-14 02:07:00,
2013-08-13 21:09:00,49.2,44.3,30.08,ENE,64,0.0,0.0,83,0.00,,CLR,0.00,VWS V12.07,2013-08-14 02:09:00,
2013-08-13 21:11:00,49.1,44.2,30.08,ENE,64,0.0,0.0,83,0.00,,CLR,0.00,VWS V12.07,2013-08-14 02:11:00,
2013-08-13 21:12:00,49.1,44.2,30.08,ENE,64,0.0,0.0,83,0.00,,CLR,0.00,VWS V12.07,2013-08-14 02:12:00,
2013-08-13 21:14:00,48.9,44.0,30.09,ENE,64,0.0,0.0,83,0.00,,CLR,0.00,VWS V12.07,2013-08-14 02:14:00,
2013-08-13 21:16:00,48.8,44.2,30.09,ENE,64,0.0,0.0,84,0.00,,CLR,0.00,VWS V12.07,2013-08-14 02:16:00,
2013-08-13 21:17:00,48.8,44.2,30.09,ENE,64,0.0,0.0,84,0.00,,CLR,0.00,VWS V12.07,2013-08-14 02:17:00,
2013-08-13 21:18:00,48.8,44.2,30.09,ENE,64,0.0,0.0,84,0.00,,CLR,0.00,VWS V12.07,2013-08-14 02:18:00,
2013-08-13 21:20:00,48.6,44.0,30.09,ENE,64,0.0,0.0,84,0.00,,CLR,0.00,VWS V12.07,2013-08-14 02:20:00,
2013-08-13 21:21:00,48.6,44.0,30.09,ENE,64,0.0,0.0,84,0.00,,CLR,0.00,VWS V12.07,2013-08-14 02:21:00,
2013-08-13 21:22:00,48.6,44.3,30.09,ENE,64,0.0,0.0,85,0.00,,CLR,0.00,VWS V12.07,2013-08-14 02:22:00,
2013-08-13 21:23:00,48.6,44.3,30.09,ENE,64,0.0,0.0,85,0.00,,CLR,0.00,VWS V12.07,2013-08-14 02:23:00,
2013-08-13 21:26:00,48.6,44.3,30.09,ENE,64,0.0,0.0,85,0.00,,CLR,0.00,VWS V12.07,2013-08-14 02:26:00,
2013-08-13 21:27:00,48.6,44.6,30.09,ENE,64,0.0,0.0,86,0.00,,CLR,0.00,VWS V12.07,2013-08-14 02:27:00,
2013-08-13 21:28:00,48.6,44.6,30.09,ENE,64,0.0,0.0,86,0.00,,CLR,0.00,VWS V12.07,2013-08-14 02:28:00,
2013-08-13 21:31:00,48.6,44.6,30.09,ENE,64,0.0,0.0,86,0.00,,CLR,0.00,VWS V12.07,2013-08-14 02:31:00,
2013-08-13 21:33:00,48.6,44.6,30.09,ENE,64,0.0,0.0,86,0.00,,CLR,0.00,VWS V12.07,2013-08-14 02:33:00,
2013-08-13 21:34:00,48.6,44.6,30.09,ENE,64,0.0,0.0,86,0.00,,CLR,0.00,VWS V12.07,2013-08-14 02:34:00,
2013-08-13 21:36:00,48.6,44.9,30.09,ENE,64,0.0,0.0,87,0.00,,CLR,0.00,VWS V12.07,2013-08-14 02:36:00,
2013-08-13 21:38:00,48.6,44.6,30.09,ENE,64,0.0,0.0,86,0.00,,CLR,0.00,VWS V12.07,2013-08-14 02:38:00,
2013-08-13 21:39:00,48.6,44.6,30.09,ENE,64,0.0,0.0,86,0.00,,CLR,0.00,VWS V12.07,2013-08-14 02:39:00,
2013-08-13 21:42:00,48.6,44.6,30.09,ENE,64,0.0,0.0,86,0.00,,CLR,0.00,VWS V12.07,2013-08-14 02:42:00,
2013-08-13 21:43:00,48.8,44.8,30.09,ENE,64,0.0,0.0,86,0.00,,CLR,0.00,VWS V12.07,2013-08-14 02:43:00,
2013-08-13 21:44:00,48.8,45.1,30.09,ENE,64,0.0,0.0,87,0.00,,CLR,0.00,VWS V12.07,2013-08-14 02:44:00,
2013-08-13 21:45:00,48.8,45.1,30.09,ENE,64,0.0,0.0,87,0.00,,CLR,0.00,VWS V12.07,2013-08-14 02:45:00,
2013-08-13 21:47:00,48.8,45.1,30.09,ENE,64,0.0,0.0,87,0.00,,CLR,0.00,VWS V12.07,2013-08-14 02:47:00,
2013-08-13 21:48:00,48.8,45.4,30.09,ENE,64,0.0,0.0,88,0.00,,CLR,0.00,VWS V12.07,2013-08-14 02:48:00,
2013-08-13 21:50:00,48.8,45.4,30.09,ENE,64,0.0,0.0,88,0.00,,CLR,0.00,VWS V12.07,2013-08-14 02:50:00,
2013-08-13 21:51:00,48.8,45.7,30.09,ENE,64,0.0,0.0,89,0.00,,CLR,0.00,VWS V12.07,2013-08-14 02:51:00,
2013-08-13 21:52:00,48.8,45.7,30.09,ENE,64,0.0,0.0,89,0.00,,CLR,0.00,VWS V12.07,2013-08-14 02:52:00,
2013-08-13 21:53:00,48.8,45.7,30.09,ENE,64,0.0,0.0,89,0.00,,CLR,0.00,VWS V12.07,2013-08-14 02:53:00,
2013-08-13 21:54:00,48.8,45.7,30.09,ENE,64,0.0,0.0,89,0.00,,CLR,0.00,VWS V12.07,2013-08-14 02:54:00,
2013-08-13 21:55:00,48.8,45.7,30.09,ENE,64,0.0,0.0,89,0.00,,CLR,0.00,VWS V12.07,2013-08-14 02:55:00,
2013-08-13 21:57:00,48.8,45.7,30.09,ENE,64,0.0,0.0,89,0.00,,CLR,0.00,VWS V12.07,2013-08-14 02:57:00,
2013-08-13 21:58:00,48.8,45.7,30.09,ENE,64,0.0,0.0,89,0.00,,CLR,0.00,VWS V12.07,2013-08-14 02:58:00,
2013-08-13 21:59:00,48.8,45.7,30.09,ENE,64,0.0,0.0,89,0.00,,CLR,0.00,VWS V12.07,2013-08-14 02:59:00,
2013-08-13 22:01:00,48.6,45.5,30.09,ENE,64,0.0,0.0,89,0.00,,CLR,0.00,VWS V12.07,2013-08-14 03:01:00,
2013-08-13 22:02:00,48.6,45.5,30.09,ENE,64,0.0,0.0,89,0.00,,CLR,0.00,VWS V12.07,2013-08-14 03:02:00,
2013-08-13 22:03:00,48.6,45.5,30.09,ENE,64,0.0,0.0,89,0.00,,CLR,0.00,VWS V12.07,2013-08-14 03:03:00,
2013-08-13 22:04:00,48.6,45.5,30.09,ENE,64,0.0,0.0,89,0.00,,CLR,0.00,VWS V12.07,2013-08-14 03:04:00,
2013-08-13 22:06:00,48.6,45.8,30.09,ENE,64,0.0,0.0,90,0.00,,CLR,0.00,VWS V12.07,2013-08-14 03:06:00,
2013-08-13 22:07:00,48.6,45.8,30.09,ENE,64,0.0,0.0,90,0.00,,CLR,0.00,VWS V12.07,2013-08-14 03:07:00,
2013-08-13 22:09:00,48.6,45.8,30.09,ENE,64,0.0,0.0,90,0.00,,CLR,0.00,VWS V12.07,2013-08-14 03:09:00,
2013-08-13 22:11:00,48.5,45.7,30.09,ENE,64,0.0,0.0,90,0.00,,CLR,0.00,VWS V12.07,2013-08-14 03:11:00,
2013-08-13 22:12:00,48.5,45.7,30.10,ENE,64,0.0,0.0,90,0.00,,CLR,0.00,VWS V12.07,2013-08-14 03:12:00,
2013-08-13 22:14:00,48.5,45.7,30.10,ENE,64,0.0,0.0,90,0.00,,CLR,0.00,VWS V12.07,2013-08-14 03:14:00,
2013-08-13 22:15:00,48.5,45.7,30.10,ENE,64,0.0,0.0,90,0.00,,CLR,0.00,VWS V12.07,2013-08-14 03:15:00,
2013-08-13 22:17:00,48.5,45.7,30.10,ENE,64,0.0,0.0,90,0.00,,CLR,0.00,VWS V12.07,2013-08-14 03:17:00,
2013-08-13 22:18:00,48.5,45.7,30.10,ENE,64,0.0,0.0,90,0.00,,CLR,0.00,VWS V12.07,2013-08-14 03:18:00,
2013-08-13 22:19:00,48.3,45.5,30.10,ENE,64,0.0,0.0,90,0.00,,CLR,0.00,VWS V12.07,2013-08-14 03:19:00,
2013-08-13 22:20:00,48.3,45.5,30.10,ENE,64,0.0,0.0,90,0.00,,CLR,0.00,VWS V12.07,2013-08-14 03:20:00,
2013-08-13 22:22:00,48.3,45.5,30.10,ENE,64,0.0,0.0,90,0.00,,CLR,0.00,VWS V12.07,2013-08-14 03:22:00,
2013-08-13 22:23:00,48.3,45.5,30.10,ENE,64,0.0,0.0,90,0.00,,CLR,0.00,VWS V12.07,2013-08-14 03:23:00,
2013-08-13 22:24:00,48.2,45.4,30.10,ENE,64,0.0,0.0,90,0.00,,CLR,0.00,VWS V12.07,2013-08-14 03:24:00,
2013-08-13 22:25:00,48.2,45.4,30.10,ENE,64,0.0,0.0,90,0.00,,CLR,0.00,VWS V12.07,2013-08-14 03:25:00,
2013-08-13 22:27:00,48.2,45.4,30.10,ENE,64,0.0,0.0,90,0.00,,CLR,0.00,VWS V12.07,2013-08-14 03:27:00,
2013-08-13 22:29:00,48.0,44.9,30.10,ENE,64,0.0,0.0,89,0.00,,CLR,0.00,VWS V12.07,2013-08-14 03:29:00,
2013-08-13 22:30:00,48.0,44.9,30.10,ENE,64,0.0,0.0,89,0.00,,CLR,0.00,VWS V12.07,2013-08-14 03:30:00,
2013-08-13 22:32:00,47.9,44.8,30.10,ENE,64,0.0,0.0,89,0.00,,CLR,0.00,VWS V12.07,2013-08-14 03:32:00,
2013-08-13 22:34:00,47.7,44.9,30.10,ENE,64,0.0,0.0,90,0.00,,CLR,0.00,VWS V12.07,2013-08-14 03:34:00,
2013-08-13 22:35:00,47.6,44.8,30.10,ENE,64,0.0,0.0,90,0.00,,CLR,0.00,VWS V12.07,2013-08-14 03:35:00,
2013-08-13 22:36:00,47.6,44.8,30.10,ENE,64,0.0,0.0,90,0.00,,CLR,0.00,VWS V12.07,2013-08-14 03:36:00,
2013-08-13 22:37:00,47.6,44.8,30.10,ENE,64,0.0,0.0,90,0.00,,CLR,0.00,VWS V12.07,2013-08-14 03:37:00,
2013-08-13 22:39:00,47.4,44.6,30.10,ENE,64,0.0,0.0,90,0.00,,CLR,0.00,VWS V12.07,2013-08-14 03:39:00,
2013-08-13 22:41:00,47.3,44.5,30.10,ENE,64,0.0,0.0,90,0.00,,CLR,0.00,VWS V12.07,2013-08-14 03:41:00,
2013-08-13 22:43:00,47.1,44.6,30.10,ENE,64,0.0,0.0,91,0.00,,CLR,0.00,VWS V12.07,2013-08-14 03:43:00,
2013-08-13 22:44:00,47.1,44.6,30.10,ENE,64,0.0,0.0,91,0.00,,CLR,0.00,VWS V12.07,2013-08-14 03:44:00,
2013-08-13 22:45:00,47.0,44.5,30.10,ENE,64,0.0,0.0,91,0.00,,CLR,0.00,VWS V12.07,2013-08-14 03:45:00,
2013-08-13 22:46:00,47.0,44.8,30.10,ENE,64,0.0,0.0,92,0.00,,CLR,0.00,VWS V12.07,2013-08-14 03:46:00,
2013-08-13 22:48:00,46.8,44.6,30.10,ENE,64,0.0,0.0,92,0.00,,CLR,0.00,VWS V12.07,2013-08-14 03:48:00,
2013-08-13 22:50:00,46.7,44.8,30.10,ENE,64,0.0,0.0,93,0.00,,CLR,0.00,VWS V12.07,2013-08-14 03:50:00,
2013-08-13 22:51:00,46.7,44.8,30.10,ENE,64,0.0,0.0,93,0.00,,CLR,0.00,VWS V12.07,2013-08-14 03:51:00,
2013-08-13 22:53:00,46.5,44.9,30.10,ENE,64,0.0,0.0,94,0.00,,CLR,0.00,VWS V12.07,2013-08-14 03:53:00,
2013-08-13 22:55:00,46.5,44.9,30.10,ENE,64,0.0,0.0,94,0.00,,CLR,0.00,VWS V12.07,2013-08-14 03:55:00,
2013-08-13 22:56:00,46.4,44.8,30.10,ENE,64,0.0,0.0,94,0.00,,CLR,0.00,VWS V12.07,2013-08-14 03:56:00,
2013-08-13 22:57:00,46.4,44.8,30.10,ENE,64,0.0,0.0,94,0.00,,CLR,0.00,VWS V12.07,2013-08-14 03:57:00,
2013-08-13 22:58:00,46.4,45.0,30.11,ENE,64,0.0,0.0,95,0.00,,CLR,0.00,VWS V12.07,2013-08-14 03:58:00,
2013-08-13 23:01:00,46.4,45.3,30.11,ENE,64,0.0,0.0,96,0.00,,CLR,0.00,VWS V12.07,2013-08-14 04:01:00,
2013-08-13 23:02:00,46.4,45.3,30.11,ENE,64,0.0,0.0,96,0.00,,CLR,0.00,VWS V12.07,2013-08-14 04:02:00,
2013-08-13 23:06:00,46.4,45.6,30.11,ENE,64,0.0,0.0,97,0.00,,CLR,0.00,VWS V12.07,2013-08-14 04:06:00,
2013-08-13 23:07:00,46.4,45.6,30.11,ENE,64,0.0,0.0,97,0.00,,CLR,0.00,VWS V12.07,2013-08-14 04:07:00,
2013-08-13 23:11:00,46.4,45.6,30.11,ENE,64,0.0,0.0,97,0.00,,CLR,0.00,VWS V12.07,2013-08-14 04:11:00,
2013-08-13 23:12:00,46.4,45.6,30.11,ENE,64,0.0,0.0,97,0.00,,CLR,0.00,VWS V12.07,2013-08-14 04:12:00,
2013-08-13 23:16:00,46.4,45.9,30.11,ENE,64,0.0,0.0,98,0.00,,CLR,0.00,VWS V12.07,2013-08-14 04:16:00,
2013-08-13 23:17:00,46.4,45.9,30.11,ENE,64,0.0,0.0,98,0.00,,CLR,0.00,VWS V12.07,2013-08-14 04:17:00,
2013-08-13 23:18:00,46.4,45.9,30.11,ENE,64,0.0,0.0,98,0.00,,CLR,0.00,VWS V12.07,2013-08-14 04:18:00,
2013-08-13 23:22:00,46.2,45.7,30.11,ENE,64,0.0,0.0,98,0.00,,CLR,0.00,VWS V12.07,2013-08-14 04:22:00,
2013-08-13 23:23:00,46.2,45.7,30.11,ENE,64,0.0,0.0,98,0.00,,CLR,0.00,VWS V12.07,2013-08-14 04:23:00,
2013-08-13 23:27:00,46.2,45.9,30.11,ENE,64,0.0,0.0,99,0.00,,CLR,0.00,VWS V12.07,2013-08-14 04:27:00,
2013-08-13 23:28:00,46.2,45.9,30.11,ENE,64,0.0,0.0,99,0.00,,CLR,0.00,VWS V12.07,2013-08-14 04:28:00,
2013-08-13 23:29:00,46.2,45.9,30.11,ENE,64,0.0,0.0,99,0.00,,CLR,0.00,VWS V12.07,2013-08-14 04:29:00,
2013-08-13 23:32:00,46.1,45.6,30.11,ENE,64,0.0,0.0,98,0.00,,,0.00,VWS V12.07,2013-08-14 04:32:00,
2013-08-13 23:33:00,46.1,45.6,30.11,ENE,64,0.0,0.0,98,0.00,,,0.00,VWS V12.07,2013-08-14 04:33:00,
2013-08-13 23:34:00,46.1,45.6,30.11,ENE,64,0.0,0.0,98,0.00,,,0.00,VWS V12.07,2013-08-14 04:34:00,
2013-08-13 23:37:00,45.8,45.0,30.11,ENE,64,0.0,0.0,97,0.00,,,0.00,VWS V12.07,2013-08-14 04:37:00,
2013-08-13 23:38:00,45.8,45.0,30.11,ENE,64,0.0,0.0,97,0.00,,,0.00,VWS V12.07,2013-08-14 04:38:00,
2013-08-13 23:39:00,45.8,45.0,30.11,ENE,64,0.0,0.0,97,0.00,,,0.00,VWS V12.07,2013-08-14 04:39:00,
2013-08-13 23:40:00,45.8,45.3,30.11,ENE,64,0.0,0.0,98,0.00,,,0.00,VWS V12.07,2013-08-14 04:40:00,
2013-08-13 23:42:00,45.8,45.3,30.11,ENE,64,0.0,0.0,98,0.00,,,0.00,VWS V12.07,2013-08-14 04:42:00,
2013-08-13 23:43:00,45.8,45.3,30.11,ENE,64,0.0,0.0,98,0.00,,,0.00,VWS V12.07,2013-08-14 04:43:00,
2013-08-13 23:44:00,45.8,45.3,30.11,ENE,64,0.0,0.0,98,0.00,,,0.00,VWS V12.07,2013-08-14 04:44:00,
2013-08-13 23:45:00,45.8,45.3,30.11,ENE,64,0.0,0.0,98,0.00,,,0.00,VWS V12.07,2013-08-14 04:45:00,
2013-08-13 23:48:00,46.0,45.7,30.11,ENE,64,0.0,0.0,99,0.00,,CLR,0.00,VWS V12.07,2013-08-14 04:48:00,
2013-08-13 23:49:00,46.0,45.7,30.11,ENE,64,0.0,0.0,99,0.00,,CLR,0.00,VWS V12.07,2013-08-14 04:49:00,
2013-08-13 23:50:00,46.0,45.7,30.11,ENE,64,0.0,0.0,99,0.00,,CLR,0.00,VWS V12.07,2013-08-14 04:50:00,
2013-08-13 23:53:00,46.0,45.7,30.11,ENE,64,0.0,0.0,99,0.00,,CLR,0.00,VWS V12.07,2013-08-14 04:53:00,
2013-08-13 23:54:00,46.0,45.7,30.11,ENE,64,0.0,0.0,99,0.00,,CLR,0.00,VWS V12.07,2013-08-14 04:54:00,
2013-08-13 23:56:00,46.0,46.0,30.11,ENE,64,0.0,0.0,100,0.00,,CLR,0.00,VWS V12.07,2013-08-14 04:56:00,
2013-08-13 23:58:00,46.0,46.0,30.10,ENE,64,0.0,0.0,100,0.00,,CLR,0.00,VWS V12.07,2013-08-14 04:58:00,
2013-08-13 23:59:00,46.0,46.0,30.10,ENE,64,0.0,0.0,100,0.00,,CLR,0.00,VWS V12.07,2013-08-14 04:59:00,